Wetterdaten: aktuell Donnerstag, 25.04.2019 02:26
Datum Zeit Temp. 2m Temp. 5cm Feuchte 2m Luftdruck Regen Wind Richtung Richtung Taupunkt Windchill Windben
25.04.2019 02:26 13,6 C 12,0 C 57 % 1017,0 hPa 0,0 l/m 6,5 km/h (2 Bft) O 90 5,2 C 13,6 C 13,0 km/h (3 Bft)
25.04.2019 02:24 13,6 C 11,9 C 58 % 1017,0 hPa 0,0 l/m 6,0 km/h (2 Bft) S-SO 157 5,5 C 13,6 C 9,2 km/h (2 Bft)
25.04.2019 02:22 13,5 C 12,3 C 58 % 1017,0 hPa 0,0 l/m 6,0 km/h (2 Bft) W-SW 247 5,4 C 13,5 C 10,4 km/h (2 Bft)
25.04.2019 02:20 13,4 C 11,9 C 58 % 1016,9 hPa 0,0 l/m 5,8 km/h (2 Bft) S-SO 157 5,3 C 13,4 C 10,4 km/h (2 Bft)
25.04.2019 02:18 13,4 C 11,9 C 58 % 1016,9 hPa 0,0 l/m 6,0 km/h (2 Bft) S 180 5,3 C 13,4 C 8,0 km/h (2 Bft)
25.04.2019 02:16 13,4 C 11,7 C 58 % 1016,9 hPa 0,0 l/m 6,3 km/h (2 Bft) S-SO 157 5,3 C 13,4 C 8,9 km/h (2 Bft)
25.04.2019 02:14 13,5 C 11,9 C 57 % 1016,9 hPa 0,0 l/m 7,2 km/h (2 Bft) O-NO 67 5,2 C 13,0 C 9,7 km/h (2 Bft)
25.04.2019 02:12 13,5 C 11,9 C 57 % 1016,9 hPa 0,0 l/m 8,0 km/h (2 Bft) S-SW 202 5,2 C 12,5 C 9,7 km/h (2 Bft)
25.04.2019 02:10 13,5 C 11,8 C 57 % 1016,9 hPa 0,0 l/m 8,2 km/h (2 Bft) O-SO 112 5,2 C 12,4 C 9,7 km/h (2 Bft)
25.04.2019 02:08 13,6 C 12,1 C 57 % 1016,9 hPa 0,0 l/m 8,7 km/h (2 Bft) NW 315 5,2 C 12,2 C 9,9 km/h (2 Bft)
25.04.2019 02:06 13,6 C 12,3 C 57 % 1016,9 hPa 0,0 l/m 8,7 km/h (2 Bft) O-SO 112 5,2 C 12,2 C 9,9 km/h (2 Bft)
25.04.2019 02:04 13,6 C 12,2 C 57 % 1016,9 hPa 0,0 l/m 8,4 km/h (2 Bft) NW 315 5,2 C 12,4 C 7,7 km/h (2 Bft)
25.04.2019 02:02 13,6 C 12,1 C 57 % 1016,9 hPa 0,0 l/m 8,0 km/h (2 Bft) O-SO 112 5,2 C 12,6 C 15,7 km/h (3 Bft)
25.04.2019 02:00 13,6 C 12,0 C 57 % 1016,8 hPa 0,0 l/m 8,2 km/h (2 Bft) S 180 5,2 C 12,5 C 15,7 km/h (3 Bft)
25.04.2019 01:58 13,6 C 11,9 C 57 % 1016,8 hPa 0,0 l/m 7,5 km/h (2 Bft) O-SO 112 5,2 C 12,9 C 8,9 km/h (2 Bft)
25.04.2019 01:56 13,6 C 12,0 C 57 % 1016,8 hPa 0,0 l/m 7,2 km/h (2 Bft) S 180 5,2 C 13,1 C 7,2 km/h (2 Bft)
25.04.2019 01:54 13,6 C 11,8 C 57 % 1016,8 hPa 0,0 l/m 7,5 km/h (2 Bft) SO 135 5,2 C 12,9 C 7,2 km/h (2 Bft)
25.04.2019 01:52 13,6 C 11,9 C 57 % 1016,8 hPa 0,0 l/m 8,7 km/h (2 Bft) S-SW 202 5,2 C 12,2 C 7,7 km/h (2 Bft)
25.04.2019 01:50 13,5 C 11,9 C 57 % 1016,8 hPa 0,0 l/m 9,2 km/h (2 Bft) S-SO 157 5,2 C 11,9 C 11,6 km/h (2 Bft)
25.04.2019 01:48 13,5 C 11,7 C 57 % 1016,8 hPa 0,0 l/m 9,2 km/h (2 Bft) SO 135 5,2 C 11,9 C 11,6 km/h (2 Bft)
25.04.2019 01:46 13,4 C 11,6 C 58 % 1016,8 hPa 0,0 l/m 8,4 km/h (2 Bft) S-SO 157 5,3 C 12,2 C 7,2 km/h (2 Bft)
25.04.2019 01:44 13,5 C 11,6 C 58 % 1016,8 hPa 0,0 l/m 8,9 km/h (2 Bft) S-SO 157 5,4 C 12,0 C 12,1 km/h (2 Bft)
25.04.2019 01:42 13,4 C 11,6 C 58 % 1016,8 hPa 0,0 l/m 8,4 km/h (2 Bft) O-NO 67 5,3 C 12,2 C 12,1 km/h (2 Bft)
25.04.2019 01:40 13,4 C 11,4 C 58 % 1016,7 hPa 0,0 l/m 7,7 km/h (2 Bft) S 180 5,3 C 12,6 C 11,6 km/h (2 Bft)
25.04.2019 01:38 13,4 C 11,5 C 58 % 1016,7 hPa 0,0 l/m 8,4 km/h (2 Bft) S 180 5,3 C 12,2 C 11,6 km/h (2 Bft)
25.04.2019 01:36 13,4 C 11,6 C 58 % 1016,7 hPa 0,0 l/m 8,9 km/h (2 Bft) O-SO 112 5,3 C 11,9 C 8,0 km/h (2 Bft)
25.04.2019 01:34 13,4 C 11,6 C 58 % 1016,7 hPa 0,0 l/m 9,2 km/h (2 Bft) S-SO 157 5,3 C 11,8 C 8,7 km/h (2 Bft)
25.04.2019 01:32 13,5 C 11,6 C 58 % 1016,7 hPa 0,0 l/m 8,9 km/h (2 Bft) S-SO 157 5,4 C 12,0 C 8,7 km/h (2 Bft)
25.04.2019 01:30 13,5 C 11,5 C 58 % 1016,7 hPa 0,0 l/m 9,2 km/h (2 Bft) SW 225 5,4 C 11,9 C 13,8 km/h (3 Bft)
25.04.2019 01:28 13,5 C 11,8 C 58 % 1016,7 hPa 0,0 l/m 8,7 km/h (2 Bft) SW 225 5,4 C 12,1 C 13,8 km/h (3 Bft)
25.04.2019 01:26 13,5 C 11,8 C 58 % 1016,7 hPa 0,0 l/m 8,9 km/h (2 Bft) S-SO 157 5,4 C 12,0 C 9,4 km/h (2 Bft)
25.04.2019 01:24 13,5 C 11,6 C 57 % 1016,7 hPa 0,0 l/m 8,9 km/h (2 Bft) S-SO 157 5,2 C 12,0 C 15,9 km/h (3 Bft)
25.04.2019 01:22 13,6 C 12,0 C 57 % 1016,7 hPa 0,0 l/m 9,4 km/h (2 Bft) S-SO 157 5,2 C 11,9 C 15,9 km/h (3 Bft)
25.04.2019 01:20 13,6 C 11,8 C 57 % 1016,5 hPa 0,0 l/m 9,7 km/h (2 Bft) S-SO 157 5,2 C 11,7 C 13,0 km/h (3 Bft)
25.04.2019 01:18 13,6 C 11,9 C 57 % 1016,5 hPa 0,0 l/m 9,4 km/h (2 Bft) S 180 5,2 C 11,9 C 15,4 km/h (3 Bft)
25.04.2019 01:16 13,6 C 11,6 C 57 % 1016,5 hPa 0,0 l/m 9,2 km/h (2 Bft) SO 135 5,2 C 12,0 C 15,4 km/h (3 Bft)
25.04.2019 01:14 13,7 C 11,7 C 57 % 1016,5 hPa 0,0 l/m 9,4 km/h (2 Bft) SO 135 5,3 C 12,0 C 15,4 km/h (3 Bft)
25.04.2019 01:12 13,7 C 12,1 C 57 % 1016,5 hPa 0,0 l/m 10,4 km/h (2 Bft) SO 135 5,3 C 11,5 C 15,4 km/h (3 Bft)
25.04.2019 01:10 13,7 C 11,9 C 57 % 1016,5 hPa 0,0 l/m 9,9 km/h (2 Bft) SW 225 5,3 C 11,7 C 17,1 km/h (3 Bft)
25.04.2019 01:08 13,7 C 11,6 C 57 % 1016,5 hPa 0,0 l/m 11,1 km/h (2 Bft) S 180 5,3 C 11,2 C 19,3 km/h (3 Bft)
25.04.2019 01:06 13,7 C 11,7 C 57 % 1016,5 hPa 0,0 l/m 12,3 km/h (3 Bft) S-SO 157 5,3 C 10,6 C 19,3 km/h (3 Bft)
25.04.2019 01:04 13,7 C 11,7 C 57 % 1016,5 hPa 0,0 l/m 12,6 km/h (3 Bft) W-NW 292 5,3 C 10,5 C 14,7 km/h (3 Bft)
25.04.2019 01:02 13,8 C 11,6 C 57 % 1016,5 hPa 0,0 l/m 12,6 km/h (3 Bft) SW 225 5,4 C 10,6 C 14,7 km/h (3 Bft)
25.04.2019 01:00 13,8 C 12,0 C 57 % 1016,8 hPa 0,0 l/m 13,5 km/h (3 Bft) W 270 5,4 C 10,3 C 21,7 km/h (4 Bft)
25.04.2019 00:58 13,8 C 12,4 C 57 % 1016,8 hPa 0,0 l/m 14,5 km/h (3 Bft) S-SO 157 5,4 C 9,9 C 21,7 km/h (4 Bft)
25.04.2019 00:56 13,8 C 12,1 C 57 % 1016,8 hPa 0,0 l/m 13,8 km/h (3 Bft) SW 225 5,4 C 10,2 C 19,6 km/h (3 Bft)
25.04.2019 00:54 13,7 C 12,2 C 57 % 1016,8 hPa 0,0 l/m 13,8 km/h (3 Bft) S 180 5,3 C 10,1 C 15,4 km/h (3 Bft)
25.04.2019 00:52 13,7 C 12,0 C 57 % 1016,8 hPa 0,0 l/m 15,0 km/h (3 Bft) SO 135 5,3 C 9,6 C 33,3 km/h (5 Bft)
25.04.2019 00:50 13,8 C 12,2 C 57 % 1016,8 hPa 0,0 l/m 14,5 km/h (3 Bft) S-SW 202 5,4 C 9,9 C 33,3 km/h (5 Bft)
25.04.2019 00:48 13,7 C 12,1 C 57 % 1016,8 hPa 0,0 l/m 13,8 km/h (3 Bft) SW 225 5,3 C 10,1 C 26,6 km/h (4 Bft)
25.04.2019 00:46 13,7 C 12,0 C 57 % 1016,8 hPa 0,0 l/m 14,5 km/h (3 Bft) S-SO 157 5,3 C 9,8 C 15,2 km/h (3 Bft)
25.04.2019 00:44 13,8 C 12,1 C 57 % 1016,8 hPa 0,0 l/m 13,5 km/h (3 Bft) S-SO 157 5,4 C 10,3 C 21,0 km/h (4 Bft)
25.04.2019 00:42 13,8 C 11,9 C 57 % 1016,8 hPa 0,0 l/m 13,5 km/h (3 Bft) O-SO 112 5,4 C 10,3 C 21,0 km/h (4 Bft)
25.04.2019 00:40 13,8 C 12,1 C 57 % 1016,6 hPa 0,0 l/m 14,0 km/h (3 Bft) O-SO 112 5,4 C 10,1 C 12,3 km/h (3 Bft)
25.04.2019 00:38 13,8 C 12,1 C 57 % 1016,6 hPa 0,0 l/m 14,0 km/h (3 Bft) SO 135 5,4 C 10,1 C 31,4 km/h (5 Bft)
25.04.2019 00:36 13,9 C 12,3 C 57 % 1016,6 hPa 0,0 l/m 13,5 km/h (3 Bft) S 180 5,5 C 10,4 C 31,4 km/h (5 Bft)
25.04.2019 00:34 14,0 C 12,4 C 57 % 1016,6 hPa 0,0 l/m 12,3 km/h (3 Bft) S-SO 157 5,6 C 11,0 C 19,8 km/h (3 Bft)
25.04.2019 00:32 14,0 C 12,3 C 57 % 1016,6 hPa 0,0 l/m 12,8 km/h (3 Bft) S 180 5,6 C 10,8 C 26,3 km/h (4 Bft)
25.04.2019 00:30 14,0 C 12,4 C 57 % 1016,6 hPa 0,0 l/m 12,8 km/h (3 Bft) S-SO 157 5,6 C 10,8 C 26,3 km/h (4 Bft)
25.04.2019 00:28 14,0 C 12,5 C 57 % 1016,6 hPa 0,0 l/m 12,8 km/h (3 Bft) SO 135 5,6 C 10,8 C 16,2 km/h (3 Bft)
25.04.2019 00:26 13,9 C 12,1 C 57 % 1016,6 hPa 0,0 l/m 13,0 km/h (3 Bft) SO 135 5,5 C 10,6 C 12,8 km/h (3 Bft)
25.04.2019 00:24 14,0 C 12,1 C 57 % 1016,6 hPa 0,0 l/m 14,0 km/h (3 Bft) S-SO 157 5,6 C 10,3 C 15,4 km/h (3 Bft)
25.04.2019 00:22 13,9 C 12,3 C 57 % 1016,6 hPa 0,0 l/m 13,8 km/h (3 Bft) S 180 5,5 C 10,3 C 15,4 km/h (3 Bft)
25.04.2019 00:20 13,8 C 12,1 C 57 % 1016,4 hPa 0,0 l/m 14,0 km/h (3 Bft) SO 135 5,4 C 10,1 C 14,7 km/h (3 Bft)
25.04.2019 00:18 13,8 C 12,3 C 57 % 1016,4 hPa 0,0 l/m 14,5 km/h (3 Bft) SW 225 5,4 C 9,9 C 16,9 km/h (3 Bft)
25.04.2019 00:16 13,8 C 12,2 C 58 % 1016,4 hPa 0,0 l/m 15,0 km/h (3 Bft) SO 135 5,7 C 9,7 C 44,2 km/h (6 Bft)
25.04.2019 00:14 13,8 C 12,2 C 58 % 1016,4 hPa 0,0 l/m 16,2 km/h (3 Bft) SO 135 5,7 C 9,3 C 33,8 km/h (5 Bft)
25.04.2019 00:12 13,8 C 12,2 C 58 % 1016,4 hPa 0,0 l/m 14,2 km/h (3 Bft) S 180 5,7 C 10,0 C 14,0 km/h (3 Bft)
25.04.2019 00:10 13,8 C 12,5 C 58 % 1016,4 hPa 0,0 l/m 13,8 km/h (3 Bft) SO 135 5,7 C 10,2 C 22,0 km/h (4 Bft)
25.04.2019 00:08 13,8 C 12,6 C 58 % 1016,4 hPa 0,0 l/m 14,5 km/h (3 Bft) SO 135 5,7 C 9,9 C 22,0 km/h (4 Bft)
25.04.2019 00:06 13,7 C 12,2 C 58 % 1016,4 hPa 0,0 l/m 14,5 km/h (3 Bft) S-SO 157 5,6 C 9,8 C 21,0 km/h (4 Bft)
25.04.2019 00:04 13,7 C 11,9 C 58 % 1016,4 hPa 0,0 l/m 13,3 km/h (3 Bft) S 180 5,6 C 10,2 C 21,0 km/h (4 Bft)
25.04.2019 00:02 13,8 C 12,3 C 58 % 1016,4 hPa 0,0 l/m 13,0 km/h (3 Bft) S-SO 157 5,7 C 10,5 C 16,9 km/h (3 Bft)
25.04.2019 00:00 13,9 C 12,5 C 58 % 1016,4 hPa 0,0 l/m 12,6 km/h (3 Bft) S-SO 157 5,8 C 10,8 C 18,1 km/h (3 Bft)
24.04.2019 23:58 13,8 C 12,4 C 58 % 1016,4 hPa 0,0 l/m 13,3 km/h (3 Bft) S-SO 157 5,7 C 10,4 C 18,1 km/h (3 Bft)
24.04.2019 23:56 13,7 C 11,9 C 58 % 1016,4 hPa 0,0 l/m 12,3 km/h (3 Bft) S-SO 157 5,6 C 10,6 C 18,3 km/h (3 Bft)
24.04.2019 23:54 13,6 C 12,0 C 58 % 1016,4 hPa 0,0 l/m 12,3 km/h (3 Bft) S 180 5,5 C 10,5 C 18,3 km/h (3 Bft)
24.04.2019 23:52 13,7 C 11,8 C 58 % 1016,4 hPa 0,0 l/m 11,8 km/h (2 Bft) S-SO 157 5,6 C 10,9 C 13,8 km/h (3 Bft)
24.04.2019 23:50 13,7 C 12,2 C 58 % 1016,4 hPa 0,0 l/m 12,1 km/h (2 Bft) S 180 5,6 C 10,7 C 11,8 km/h (2 Bft)
24.04.2019 23:48 13,6 C 12,0 C 58 % 1016,4 hPa 0,0 l/m 11,1 km/h (2 Bft) S-SW 202 5,5 C 11,1 C 13,5 km/h (3 Bft)
24.04.2019 23:46 13,6 C 11,8 C 58 % 1016,4 hPa 0,0 l/m 10,4 km/h (2 Bft) SO 135 5,5 C 11,4 C 15,4 km/h (3 Bft)
24.04.2019 23:44 13,7 C 12,0 C 58 % 1016,4 hPa 0,0 l/m 10,6 km/h (2 Bft) SW 225 5,6 C 11,4 C 15,4 km/h (3 Bft)
24.04.2019 23:42 13,7 C 11,8 C 58 % 1016,4 hPa 0,0 l/m 10,6 km/h (2 Bft) S 180 5,6 C 11,4 C 14,2 km/h (3 Bft)
24.04.2019 23:40 13,7 C 11,8 C 58 % 1015,8 hPa 0,0 l/m 11,6 km/h (2 Bft) W-SW 247 5,6 C 10,9 C 15,4 km/h (3 Bft)
24.04.2019 23:38 13,7 C 11,9 C 58 % 1015,8 hPa 0,0 l/m 12,3 km/h (3 Bft) W-NW 292 5,6 C 10,6 C 15,4 km/h (3 Bft)
24.04.2019 23:36 13,7 C 11,8 C 58 % 1015,8 hPa 0,0 l/m 13,3 km/h (3 Bft) S-SO 157 5,6 C 10,2 C 18,3 km/h (3 Bft)
24.04.2019 23:34 13,8 C 12,1 C 58 % 1015,8 hPa 0,0 l/m 14,5 km/h (3 Bft) S 180 5,7 C 9,9 C 18,3 km/h (3 Bft)
24.04.2019 23:32 13,8 C 12,1 C 58 % 1015,8 hPa 0,0 l/m 14,7 km/h (3 Bft) S 180 5,7 C 9,8 C 12,3 km/h (3 Bft)
24.04.2019 23:30 13,9 C 12,3 C 58 % 1015,8 hPa 0,0 l/m 15,4 km/h (3 Bft) O-SO 112 5,8 C 9,7 C 25,6 km/h (4 Bft)
24.04.2019 23:28 13,9 C 12,2 C 58 % 1015,8 hPa 0,0 l/m 15,7 km/h (3 Bft) W-SW 247 5,8 C 9,6 C 25,6 km/h (4 Bft)
24.04.2019 23:26 13,9 C 12,3 C 58 % 1015,8 hPa 0,0 l/m 15,4 km/h (3 Bft) SW 225 5,8 C 9,7 C 17,9 km/h (3 Bft)
24.04.2019 23:24 13,9 C 12,2 C 58 % 1015,8 hPa 0,0 l/m 15,2 km/h (3 Bft) SO 135 5,8 C 9,8 C 27,0 km/h (4 Bft)
24.04.2019 23:22 13,7 C 12,3 C 58 % 1015,8 hPa 0,0 l/m 13,8 km/h (3 Bft) S 180 5,6 C 10,1 C 31,4 km/h (5 Bft)
24.04.2019 23:20 13,8 C 11,9 C 58 % 1016,1 hPa 0,0 l/m 13,5 km/h (3 Bft) S 180 5,7 C 10,3 C 31,4 km/h (5 Bft)
24.04.2019 23:18 13,8 C 12,0 C 58 % 1016,1 hPa 0,0 l/m 12,8 km/h (3 Bft) O-SO 112 5,7 C 10,6 C 13,8 km/h (3 Bft)
24.04.2019 23:16 13,8 C 12,2 C 58 % 1016,1 hPa 0,0 l/m 11,6 km/h (2 Bft) W-SW 247 5,7 C 11,1 C 13,8 km/h (3 Bft)
24.04.2019 23:14 13,7 C 12,1 C 58 % 1016,1 hPa 0,0 l/m 11,6 km/h (2 Bft) SW 225 5,6 C 10,9 C 20,5 km/h (4 Bft)
24.04.2019 23:12 13,8 C 12,1 C 58 % 1016,1 hPa 0,0 l/m 12,1 km/h (2 Bft) S-SO 157 5,7 C 10,8 C 30,4 km/h (5 Bft)
24.04.2019 23:10 13,8 C 12,2 C 58 % 1016,1 hPa 0,0 l/m 13,5 km/h (3 Bft) S-SO 157 5,7 C 10,3 C 30,4 km/h (5 Bft)
24.04.2019 23:08 13,8 C 12,4 C 58 % 1016,1 hPa 0,0 l/m 12,8 km/h (3 Bft) NW 315 5,7 C 10,6 C 22,7 km/h (4 Bft)
24.04.2019 23:06 14,0 C 12,3 C 58 % 1016,1 hPa 0,0 l/m 13,3 km/h (3 Bft) S-SO 157 5,9 C 10,6 C 21,5 km/h (4 Bft)
24.04.2019 23:04 14,0 C 12,5 C 57 % 1016,1 hPa 0,0 l/m 12,3 km/h (3 Bft) W-SW 247 5,6 C 11,0 C 33,1 km/h (5 Bft)
24.04.2019 23:02 14,1 C 12,7 C 57 % 1016,1 hPa 0,0 l/m 11,8 km/h (2 Bft) S-SW 202 5,7 C 11,3 C 33,1 km/h (5 Bft)
24.04.2019 23:00 14,1 C 12,9 C 58 % 1015,9 hPa 0,0 l/m 11,3 km/h (2 Bft) S 180 6,0 C 11,5 C 22,0 km/h (4 Bft)
24.04.2019 22:58 14,0 C 12,6 C 58 % 1015,9 hPa 0,0 l/m 10,4 km/h (2 Bft) S-SO 157 5,9 C 11,8 C 19,3 km/h (3 Bft)
24.04.2019 22:56 13,8 C 12,4 C 58 % 1015,9 hPa 0,0 l/m 10,9 km/h (2 Bft) SO 135 5,7 C 11,4 C 19,3 km/h (3 Bft)
24.04.2019 22:54 14,0 C 12,4 C 58 % 1015,9 hPa 0,0 l/m 12,1 km/h (2 Bft) S-SO 157 5,9 C 11,1 C 15,0 km/h (3 Bft)
24.04.2019 22:52 14,0 C 12,4 C 58 % 1015,9 hPa 0,0 l/m 12,8 km/h (3 Bft) S 180 5,9 C 10,8 C 15,0 km/h (3 Bft)
24.04.2019 22:50 14,0 C 12,5 C 58 % 1015,9 hPa 0,0 l/m 13,0 km/h (3 Bft) S 180 5,9 C 10,7 C 12,3 km/h (3 Bft)
24.04.2019 22:48 14,0 C 12,3 C 58 % 1015,9 hPa 0,0 l/m 13,3 km/h (3 Bft) S-SO 157 5,9 C 10,6 C 28,2 km/h (4 Bft)
24.04.2019 22:46 14,0 C 12,4 C 58 % 1015,9 hPa 0,0 l/m 13,3 km/h (3 Bft) S 180 5,9 C 10,6 C 28,2 km/h (4 Bft)
24.04.2019 22:44 14,1 C 12,5 C 58 % 1015,9 hPa 0,0 l/m 12,8 km/h (3 Bft) S-SO 157 6,0 C 10,9 C 16,7 km/h (3 Bft)
24.04.2019 22:42 14,0 C 12,5 C 58 % 1015,9 hPa 0,0 l/m 13,0 km/h (3 Bft) W 270 5,9 C 10,7 C 30,9 km/h (5 Bft)
24.04.2019 22:40 14,1 C 12,3 C 58 % 1016,1 hPa 0,0 l/m 13,5 km/h (3 Bft) S 180 6,0 C 10,6 C 30,9 km/h (5 Bft)
24.04.2019 22:38 14,1 C 12,2 C 58 % 1016,1 hPa 0,0 l/m 14,2 km/h (3 Bft) S 180 6,0 C 10,4 C 17,4 km/h (3 Bft)
24.04.2019 22:36 14,1 C 12,3 C 58 % 1016,1 hPa 0,0 l/m 16,4 km/h (3 Bft) W-SW 247 6,0 C 9,6 C 15,0 km/h (3 Bft)
24.04.2019 22:34 14,1 C 12,7 C 58 % 1016,1 hPa 0,0 l/m 16,9 km/h (3 Bft) S 180 6,0 C 9,5 C 29,7 km/h (5 Bft)
24.04.2019 22:32 14,2 C 12,6 C 58 % 1016,1 hPa 0,0 l/m 16,9 km/h (3 Bft) S 180 6,1 C 9,6 C 29,7 km/h (5 Bft)
24.04.2019 22:30 14,2 C 12,7 C 58 % 1016,1 hPa 0,0 l/m 16,9 km/h (3 Bft) S 180 6,1 C 9,6 C 17,1 km/h (3 Bft)
24.04.2019 22:28 14,3 C 12,8 C 58 % 1016,1 hPa 0,0 l/m 16,7 km/h (3 Bft) SO 135 6,2 C 9,8 C 22,7 km/h (4 Bft)
24.04.2019 22:26 14,3 C 12,8 C 58 % 1016,1 hPa 0,0 l/m 14,7 km/h (3 Bft) S 180 6,2 C 10,4 C 28,5 km/h (4 Bft)
24.04.2019 22:24 14,2 C 12,6 C 58 % 1016,1 hPa 0,0 l/m 15,0 km/h (3 Bft) S-SW 202 6,1 C 10,2 C 28,5 km/h (4 Bft)
24.04.2019 22:22 14,3 C 12,5 C 57 % 1016,1 hPa 0,0 l/m 14,5 km/h (3 Bft) S 180 5,9 C 10,5 C 14,5 km/h (3 Bft)
24.04.2019 22:20 14,4 C 12,8 C 57 % 1016,1 hPa 0,0 l/m 15,4 km/h (3 Bft) W-SW 247 6,0 C 10,3 C 14,5 km/h (3 Bft)
24.04.2019 22:18 14,4 C 13,1 C 57 % 1016,1 hPa 0,0 l/m 15,2 km/h (3 Bft) SO 135 6,0 C 10,4 C 19,6 km/h (3 Bft)
24.04.2019 22:16 14,4 C 13,2 C 57 % 1016,1 hPa 0,0 l/m 14,7 km/h (3 Bft) S-SO 157 6,0 C 10,6 C 19,6 km/h (3 Bft)
24.04.2019 22:14 14,5 C 13,1 C 58 % 1016,1 hPa 0,0 l/m 13,5 km/h (3 Bft) S-SO 157 6,3 C 11,1 C 18,3 km/h (3 Bft)
24.04.2019 22:12 14,5 C 13,1 C 58 % 1016,1 hPa 0,0 l/m 13,0 km/h (3 Bft) S 180 6,3 C 11,3 C 28,0 km/h (4 Bft)
24.04.2019 22:10 14,3 C 12,9 C 58 % 1016,1 hPa 0,0 l/m 11,1 km/h (2 Bft) SO 135 6,2 C 11,8 C 28,0 km/h (4 Bft)
24.04.2019 22:08 14,3 C 12,9 C 58 % 1016,1 hPa 0,0 l/m 10,1 km/h (2 Bft) SO 135 6,2 C 12,3 C 10,1 km/h (2 Bft)
24.04.2019 22:06 14,3 C 12,7 C 58 % 1016,1 hPa 0,0 l/m 12,3 km/h (3 Bft) SO 135 6,2 C 11,3 C 12,1 km/h (2 Bft)
24.04.2019 22:04 14,3 C 12,7 C 58 % 1016,1 hPa 0,0 l/m 14,0 km/h (3 Bft) S 180 6,2 C 10,7 C 22,7 km/h (4 Bft)
24.04.2019 22:02 14,3 C 12,4 C 58 % 1016,1 hPa 0,0 l/m 15,0 km/h (3 Bft) W-SW 247 6,2 C 10,3 C 22,7 km/h (4 Bft)
24.04.2019 22:00 14,3 C 12,9 C 58 % 1016,1 hPa 0,0 l/m 15,2 km/h (3 Bft) S-SW 202 6,2 C 10,3 C 9,9 km/h (2 Bft)
24.04.2019 21:58 14,4 C 13,1 C 58 % 1016,1 hPa 0,0 l/m 15,2 km/h (3 Bft) SO 135 6,2 C 10,4 C 46,6 km/h (6 Bft)
24.04.2019 21:56 14,4 C 12,9 C 58 % 1016,1 hPa 0,0 l/m 14,7 km/h (3 Bft) S 180 6,2 C 10,6 C 46,6 km/h (6 Bft)
24.04.2019 21:54 14,3 C 12,8 C 58 % 1016,1 hPa 0,0 l/m 12,3 km/h (3 Bft) S-SO 157 6,2 C 11,3 C 39,1 km/h (6 Bft)
24.04.2019 21:52 14,3 C 13,0 C 59 % 1016,1 hPa 0,0 l/m 13,5 km/h (3 Bft) W-SW 247 6,4 C 10,9 C 39,1 km/h (6 Bft)
24.04.2019 21:50 14,3 C 12,8 C 59 % 1016,1 hPa 0,0 l/m 14,5 km/h (3 Bft) S 180 6,4 C 10,5 C 14,0 km/h (3 Bft)
24.04.2019 21:48 14,2 C 12,3 C 59 % 1016,1 hPa 0,0 l/m 15,9 km/h (3 Bft) S 180 6,3 C 9,9 C 8,7 km/h (2 Bft)
24.04.2019 21:46 14,3 C 12,5 C 59 % 1016,1 hPa 0,0 l/m 17,1 km/h (3 Bft) S 180 6,4 C 9,7 C 8,7 km/h (2 Bft)
24.04.2019 21:44 14,3 C 12,8 C 59 % 1016,1 hPa 0,0 l/m 18,8 km/h (3 Bft) S 180 6,4 C 9,2 C 31,1 km/h (5 Bft)
24.04.2019 21:42 14,4 C 13,0 C 59 % 1016,1 hPa 0,0 l/m 20,0 km/h (4 Bft) S 180 6,5 C 9,0 C 31,1 km/h (5 Bft)
24.04.2019 21:40 14,4 C 12,9 C 59 % 1015,6 hPa 0,0 l/m 18,3 km/h (3 Bft) S 180 6,5 C 9,4 C 29,9 km/h (5 Bft)
24.04.2019 21:38 14,3 C 12,7 C 59 % 1015,6 hPa 0,0 l/m 18,1 km/h (3 Bft) SW 225 6,4 C 9,4 C 29,9 km/h (5 Bft)
24.04.2019 21:36 14,4 C 12,7 C 59 % 1015,6 hPa 0,0 l/m 18,1 km/h (3 Bft) W-SW 247 6,5 C 9,5 C 35,5 km/h (5 Bft)
24.04.2019 21:34 14,4 C 12,9 C 59 % 1015,6 hPa 0,0 l/m 19,3 km/h (3 Bft) S 180 6,5 C 9,2 C 35,5 km/h (5 Bft)
24.04.2019 21:32 14,4 C 12,8 C 59 % 1015,6 hPa 0,0 l/m 20,3 km/h (4 Bft) S 180 6,5 C 8,9 C 23,9 km/h (4 Bft)
24.04.2019 21:30 14,5 C 12,9 C 59 % 1015,6 hPa 0,0 l/m 21,7 km/h (4 Bft) S-SW 202 6,6 C 8,7 C 23,9 km/h (4 Bft)
24.04.2019 21:28 14,5 C 13,0 C 59 % 1015,6 hPa 0,0 l/m 22,4 km/h (4 Bft) S-SO 157 6,6 C 8,5 C 32,8 km/h (5 Bft)
24.04.2019 21:26 14,5 C 13,0 C 59 % 1015,6 hPa 0,0 l/m 23,4 km/h (4 Bft) SO 135 6,6 C 8,3 C 32,8 km/h (5 Bft)
24.04.2019 21:24 14,5 C 13,1 C 59 % 1015,6 hPa 0,0 l/m 21,7 km/h (4 Bft) W-SW 247 6,6 C 8,7 C 29,5 km/h (5 Bft)
24.04.2019 21:22 14,5 C 13,1 C 59 % 1015,6 hPa 0,0 l/m 21,5 km/h (4 Bft) S-SO 157 6,6 C 8,7 C 34,5 km/h (5 Bft)
24.04.2019 21:20 14,4 C 13,1 C 59 % 1015,7 hPa 0,0 l/m 21,5 km/h (4 Bft) W-SW 247 6,5 C 8,6 C 34,5 km/h (5 Bft)
24.04.2019 21:18 14,3 C 13,0 C 59 % 1015,7 hPa 0,0 l/m 20,8 km/h (4 Bft) N-NW 337 6,4 C 8,6 C 33,6 km/h (5 Bft)
24.04.2019 21:16 14,3 C 12,8 C 60 % 1015,7 hPa 0,0 l/m 19,3 km/h (3 Bft) S 180 6,6 C 9,0 C 33,6 km/h (5 Bft)
24.04.2019 21:14 14,3 C 13,0 C 60 % 1015,7 hPa 0,0 l/m 18,6 km/h (3 Bft) S 180 6,6 C 9,2 C 29,7 km/h (5 Bft)
24.04.2019 21:12 14,3 C 12,9 C 60 % 1015,7 hPa 0,0 l/m 17,6 km/h (3 Bft) SO 135 6,6 C 9,5 C 29,9 km/h (5 Bft)
24.04.2019 21:10 14,2 C 12,6 C 60 % 1015,7 hPa 0,0 l/m 15,4 km/h (3 Bft) SW 225 6,5 C 10,1 C 34,0 km/h (5 Bft)
24.04.2019 21:08 14,2 C 12,5 C 60 % 1015,7 hPa 0,0 l/m 15,9 km/h (3 Bft) S 180 6,5 C 9,9 C 34,0 km/h (5 Bft)
24.04.2019 21:06 14,1 C 12,6 C 60 % 1015,7 hPa 0,0 l/m 16,2 km/h (3 Bft) S-SO 157 6,5 C 9,7 C 17,6 km/h (3 Bft)
24.04.2019 21:04 14,2 C 12,7 C 60 % 1015,7 hPa 0,0 l/m 16,7 km/h (3 Bft) SW 225 6,5 C 9,7 C 24,6 km/h (4 Bft)
24.04.2019 21:02 14,2 C 12,4 C 60 % 1015,7 hPa 0,0 l/m 18,6 km/h (3 Bft) S-SO 157 6,5 C 9,1 C 24,6 km/h (4 Bft)
24.04.2019 21:00 14,2 C 12,5 C 60 % 1015,6 hPa 0,0 l/m 17,9 km/h (3 Bft) S 180 6,5 C 9,3 C 33,1 km/h (5 Bft)
24.04.2019 20:58 14,2 C 12,5 C 60 % 1015,6 hPa 0,0 l/m 17,6 km/h (3 Bft) S-SO 157 6,5 C 9,4 C 33,1 km/h (5 Bft)
24.04.2019 20:56 14,2 C 12,5 C 60 % 1015,6 hPa 0,0 l/m 16,2 km/h (3 Bft) S-SO 157 6,5 C 9,8 C 14,7 km/h (3 Bft)
24.04.2019 20:54 14,3 C 12,7 C 60 % 1015,6 hPa 0,0 l/m 15,2 km/h (3 Bft) SW 225 6,6 C 10,3 C 30,2 km/h (5 Bft)
24.04.2019 20:52 14,2 C 12,4 C 60 % 1015,6 hPa 0,0 l/m 15,7 km/h (3 Bft) S 180 6,5 C 10,0 C 30,2 km/h (5 Bft)
24.04.2019 20:50 14,2 C 12,4 C 60 % 1015,6 hPa 0,0 l/m 14,0 km/h (3 Bft) SW 225 6,5 C 10,6 C 31,4 km/h (5 Bft)
24.04.2019 20:48 14,1 C 12,1 C 60 % 1015,6 hPa 0,0 l/m 14,5 km/h (3 Bft) S 180 6,5 C 10,3 C 33,6 km/h (5 Bft)
24.04.2019 20:46 14,2 C 12,2 C 60 % 1015,6 hPa 0,0 l/m 14,0 km/h (3 Bft) SW 225 6,5 C 10,6 C 33,6 km/h (5 Bft)
24.04.2019 20:44 14,2 C 12,6 C 60 % 1015,6 hPa 0,0 l/m 12,3 km/h (3 Bft) S-SO 157 6,5 C 11,2 C 30,9 km/h (5 Bft)
24.04.2019 20:42 14,2 C 12,5 C 60 % 1015,6 hPa 0,0 l/m 12,6 km/h (3 Bft) S 180 6,5 C 11,1 C 30,9 km/h (5 Bft)
24.04.2019 20:40 14,3 C 12,1 C 60 % 1015,6 hPa 0,0 l/m 12,8 km/h (3 Bft) S 180 6,6 C 11,1 C 27,0 km/h (4 Bft)
24.04.2019 20:38 14,2 C 11,7 C 60 % 1015,6 hPa 0,0 l/m 12,6 km/h (3 Bft) S 180 6,5 C 11,1 C 27,0 km/h (4 Bft)
24.04.2019 20:36 14,2 C 11,9 C 60 % 1015,6 hPa 0,0 l/m 12,8 km/h (3 Bft) SO 135 6,5 C 11,0 C 9,2 km/h (2 Bft)
24.04.2019 20:34 14,3 C 12,1 C 60 % 1015,6 hPa 0,0 l/m 13,3 km/h (3 Bft) SW 225 6,6 C 11,0 C 27,3 km/h (4 Bft)
24.04.2019 20:32 14,4 C 12,6 C 60 % 1015,6 hPa 0,0 l/m 15,2 km/h (3 Bft) W 270 6,7 C 10,4 C 27,3 km/h (4 Bft)
24.04.2019 20:30 14,3 C 12,3 C 60 % 1015,6 hPa 0,0 l/m 14,0 km/h (3 Bft) S 180 6,6 C 10,7 C 21,2 km/h (4 Bft)
24.04.2019 20:28 14,3 C 12,3 C 60 % 1015,6 hPa 0,0 l/m 14,5 km/h (3 Bft) S 180 6,6 C 10,5 C 17,6 km/h (3 Bft)
24.04.2019 20:26 14,4 C 12,6 C 60 % 1015,6 hPa 0,0 l/m 15,7 km/h (3 Bft) W-SW 247 6,7 C 10,2 C 17,6 km/h (3 Bft)
24.04.2019 20:24 14,4 C 12,8 C 60 % 1015,6 hPa 0,0 l/m 15,9 km/h (3 Bft) S-SO 157 6,7 C 10,2 C 30,7 km/h (5 Bft)
24.04.2019 20:22 14,5 C 12,8 C 60 % 1015,6 hPa 0,0 l/m 15,9 km/h (3 Bft) S 180 6,8 C 10,3 C 30,7 km/h (5 Bft)
24.04.2019 20:20 14,5 C 13,1 C 60 % 1015,6 hPa 0,0 l/m 14,5 km/h (3 Bft) S-SO 157 6,8 C 10,8 C 25,8 km/h (4 Bft)
24.04.2019 20:18 14,5 C 12,8 C 60 % 1015,6 hPa 0,0 l/m 13,0 km/h (3 Bft) S 180 6,8 C 11,3 C 25,8 km/h (4 Bft)
24.04.2019 20:16 14,5 C 12,6 C 59 % 1015,6 hPa 0,0 l/m 11,1 km/h (2 Bft) SW 225 6,6 C 12,1 C 21,5 km/h (4 Bft)
24.04.2019 20:14 14,5 C 12,6 C 59 % 1015,6 hPa 0,0 l/m 10,6 km/h (2 Bft) S-SO 157 6,6 C 12,3 C 20,8 km/h (4 Bft)
24.04.2019 20:12 14,5 C 12,5 C 59 % 1015,6 hPa 0,0 l/m 9,9 km/h (2 Bft) S-SO 157 6,6 C 12,6 C 20,8 km/h (4 Bft)
24.04.2019 20:10 14,5 C 12,5 C 59 % 1015,6 hPa 0,0 l/m 9,7 km/h (2 Bft) S 180 6,6 C 12,7 C 12,1 km/h (2 Bft)
24.04.2019 20:08 14,6 C 12,6 C 59 % 1015,6 hPa 0,0 l/m 9,9 km/h (2 Bft) S 180 6,7 C 12,7 C 14,5 km/h (3 Bft)
24.04.2019 20:06 14,6 C 12,9 C 59 % 1015,6 hPa 0,0 l/m 9,7 km/h (2 Bft) S-SO 157 6,7 C 12,8 C 19,1 km/h (3 Bft)
24.04.2019 20:04 14,7 C 12,8 C 59 % 1015,6 hPa 0,0 l/m 9,4 km/h (2 Bft) SO 135 6,8 C 13,1 C 19,1 km/h (3 Bft)
24.04.2019 20:02 14,6 C 12,4 C 59 % 1015,6 hPa 0,0 l/m 8,0 km/h (2 Bft) S 180 6,7 C 13,7 C 16,9 km/h (3 Bft)
24.04.2019 20:00 14,6 C 12,4 C 59 % 1015,7 hPa 0,0 l/m 7,2 km/h (2 Bft) SO 135 6,7 C 14,1 C 12,3 km/h (3 Bft)
24.04.2019 19:58 14,6 C 12,2 C 59 % 1015,7 hPa 0,0 l/m 7,2 km/h (2 Bft) S-SO 157 6,7 C 14,1 C 12,3 km/h (3 Bft)
24.04.2019 19:56 14,6 C 12,8 C 59 % 1015,7 hPa 0,0 l/m 9,2 km/h (2 Bft) SO 135 6,7 C 13,1 C 9,7 km/h (2 Bft)
24.04.2019 19:54 14,6 C 12,1 C 59 % 1015,7 hPa 0,0 l/m 10,6 km/h (2 Bft) S-SO 157 6,7 C 12,4 C 9,7 km/h (2 Bft)
24.04.2019 19:52 14,7 C 12,4 C 59 % 1015,7 hPa 0,0 l/m 12,1 km/h (2 Bft) S-SW 202 6,8 C 11,9 C 10,1 km/h (2 Bft)
24.04.2019 19:50 14,8 C 13,1 C 59 % 1015,7 hPa 0,0 l/m 12,6 km/h (3 Bft) SO 135 6,9 C 11,8 C 23,9 km/h (4 Bft)
24.04.2019 19:48 14,8 C 13,0 C 59 % 1015,7 hPa 0,0 l/m 13,3 km/h (3 Bft) SW 225 6,9 C 11,5 C 24,4 km/h (4 Bft)
24.04.2019 19:46 14,8 C 13,0 C 60 % 1015,7 hPa 0,0 l/m 12,3 km/h (3 Bft) W-SW 247 7,1 C 11,9 C 24,4 km/h (4 Bft)
24.04.2019 19:44 14,8 C 12,9 C 60 % 1015,7 hPa 0,0 l/m 10,1 km/h (2 Bft) S-SW 202 7,1 C 12,9 C 17,9 km/h (3 Bft)
24.04.2019 19:42 14,9 C 12,7 C 60 % 1015,7 hPa 0,0 l/m 8,7 km/h (2 Bft) SW 225 7,2 C 13,6 C 9,7 km/h (2 Bft)
24.04.2019 19:40 14,9 C 13,0 C 60 % 1015,6 hPa 0,0 l/m 7,5 km/h (2 Bft) N-NO 22 7,2 C 14,3 C 17,6 km/h (3 Bft)
24.04.2019 19:38 14,9 C 13,0 C 60 % 1015,6 hPa 0,0 l/m 6,8 km/h (2 Bft) SO 135 7,2 C 14,7 C 21,5 km/h (4 Bft)
24.04.2019 19:36 14,9 C 12,6 C 60 % 1015,6 hPa 0,0 l/m 6,8 km/h (2 Bft) W 270 7,2 C 14,7 C 21,5 km/h (4 Bft)
24.04.2019 19:34 14,9 C 12,5 C 60 % 1015,6 hPa 0,0 l/m 7,5 km/h (2 Bft) W-SW 247 7,2 C 14,3 C 6,0 km/h (2 Bft)
24.04.2019 19:32 14,9 C 12,5 C 60 % 1015,6 hPa 0,0 l/m 8,7 km/h (2 Bft) SO 135 7,2 C 13,6 C 6,8 km/h (2 Bft)
24.04.2019 19:30 15,0 C 12,6 C 59 % 1015,6 hPa 0,0 l/m 8,7 km/h (2 Bft) SW 225 7,1 C 13,7 C 6,8 km/h (2 Bft)
24.04.2019 19:28 15,0 C 12,7 C 59 % 1015,6 hPa 0,0 l/m 9,2 km/h (2 Bft) W-NW 292 7,1 C 13,5 C 15,4 km/h (3 Bft)
24.04.2019 19:26 15,1 C 12,9 C 59 % 1015,6 hPa 0,0 l/m 12,1 km/h (2 Bft) W-SW 247 7,1 C 12,3 C 25,3 km/h (4 Bft)
24.04.2019 19:24 15,1 C 12,8 C 59 % 1015,6 hPa 0,0 l/m 12,1 km/h (2 Bft) SW 225 7,1 C 12,3 C 25,3 km/h (4 Bft)
24.04.2019 19:22 15,1 C 12,7 C 59 % 1015,6 hPa 0,0 l/m 11,8 km/h (2 Bft) W 270 7,1 C 12,5 C 14,2 km/h (3 Bft)
24.04.2019 19:20 15,2 C 13,4 C 59 % 1015,9 hPa 0,0 l/m 12,8 km/h (3 Bft) S-SO 157 7,2 C 12,2 C 13,8 km/h (3 Bft)
24.04.2019 19:18 15,2 C 13,4 C 59 % 1015,9 hPa 0,0 l/m 12,6 km/h (3 Bft) W-SW 247 7,2 C 12,3 C 33,3 km/h (5 Bft)
24.04.2019 19:16 15,3 C 13,1 C 59 % 1015,9 hPa 0,0 l/m 12,1 km/h (2 Bft) SW 225 7,3 C 12,6 C 33,3 km/h (5 Bft)
24.04.2019 19:14 15,3 C 13,2 C 59 % 1015,9 hPa 0,0 l/m 9,9 km/h (2 Bft) S-SW 202 7,3 C 13,5 C 14,5 km/h (3 Bft)
24.04.2019 19:12 15,3 C 13,1 C 59 % 1015,9 hPa 0,0 l/m 9,2 km/h (2 Bft) W-SW 247 7,3 C 13,8 C 16,9 km/h (3 Bft)
24.04.2019 19:10 15,4 C 13,2 C 59 % 1015,9 hPa 0,0 l/m 9,2 km/h (2 Bft) SO 135 7,4 C 13,9 C 16,9 km/h (3 Bft)
24.04.2019 19:08 15,4 C 13,3 C 59 % 1015,9 hPa 0,0 l/m 11,1 km/h (2 Bft) S 180 7,4 C 13,1 C 14,0 km/h (3 Bft)
24.04.2019 19:06 15,4 C 13,6 C 59 % 1015,9 hPa 0,0 l/m 12,3 km/h (3 Bft) S 180 7,4 C 12,6 C 14,0 km/h (3 Bft)
24.04.2019 19:04 15,5 C 13,2 C 59 % 1015,9 hPa 0,0 l/m 13,0 km/h (3 Bft) S 180 7,5 C 12,5 C 21,2 km/h (4 Bft)
24.04.2019 19:02 15,5 C 13,8 C 59 % 1015,9 hPa 0,0 l/m 15,4 km/h (3 Bft) W-SW 247 7,5 C 11,7 C 21,2 km/h (4 Bft)
24.04.2019 19:00 15,6 C 13,7 C 59 % 1015,8 hPa 0,0 l/m 15,0 km/h (3 Bft) W-NW 292 7,6 C 11,9 C 42,7 km/h (6 Bft)
24.04.2019 18:58 15,6 C 14,0 C 59 % 1015,8 hPa 0,0 l/m 16,2 km/h (3 Bft) S-SO 157 7,6 C 11,5 C 42,7 km/h (6 Bft)
24.04.2019 18:56 15,6 C 13,9 C 59 % 1015,8 hPa 0,0 l/m 15,4 km/h (3 Bft) SO 135 7,6 C 11,8 C 26,8 km/h (4 Bft)
24.04.2019 18:54 15,6 C 13,9 C 59 % 1015,8 hPa 0,0 l/m 14,2 km/h (3 Bft) SO 135 7,6 C 12,2 C 21,2 km/h (4 Bft)
24.04.2019 18:52 15,7 C 13,8 C 59 % 1015,8 hPa 0,0 l/m 12,6 km/h (3 Bft) W-SW 247 7,7 C 12,9 C 21,2 km/h (4 Bft)
24.04.2019 18:50 15,7 C 13,8 C 59 % 1015,8 hPa 0,0 l/m 13,5 km/h (3 Bft) SW 225 7,7 C 12,5 C 22,7 km/h (4 Bft)
24.04.2019 18:48 15,7 C 14,0 C 59 % 1015,8 hPa 0,0 l/m 12,6 km/h (3 Bft) SW 225 7,7 C 12,9 C 22,7 km/h (4 Bft)
24.04.2019 18:46 15,8 C 14,1 C 58 % 1015,8 hPa 0,0 l/m 11,6 km/h (2 Bft) S-SW 202 7,6 C 13,3 C 11,3 km/h (2 Bft)
24.04.2019 18:44 15,8 C 14,1 C 58 % 1015,8 hPa 0,0 l/m 11,6 km/h (2 Bft) SO 135 7,6 C 13,3 C 10,9 km/h (2 Bft)
24.04.2019 18:42 15,9 C 14,2 C 58 % 1015,8 hPa 0,0 l/m 13,0 km/h (3 Bft) S 180 7,6 C 12,9 C 27,8 km/h (4 Bft)
24.04.2019 18:40 15,9 C 14,1 C 58 % 1015,9 hPa 0,0 l/m 12,6 km/h (3 Bft) SW 225 7,6 C 13,1 C 27,8 km/h (4 Bft)
24.04.2019 18:38 15,9 C 14,2 C 58 % 1015,9 hPa 0,0 l/m 13,3 km/h (3 Bft) S-SO 157 7,6 C 12,8 C 19,8 km/h (3 Bft)
24.04.2019 18:36 15,9 C 13,9 C 58 % 1015,9 hPa 0,0 l/m 13,0 km/h (3 Bft) SW 225 7,6 C 12,9 C 22,4 km/h (4 Bft)
24.04.2019 18:34 15,9 C 14,2 C 58 % 1015,9 hPa 0,0 l/m 13,8 km/h (3 Bft) S 180 7,6 C 12,7 C 22,4 km/h (4 Bft)
24.04.2019 18:32 16,0 C 14,2 C 56 % 1015,9 hPa 0,0 l/m 12,1 km/h (2 Bft) S-SO 157 7,2 C 13,4 C 18,3 km/h (3 Bft)
24.04.2019 18:30 16,0 C 14,2 C 56 % 1015,9 hPa 0,0 l/m 14,2 km/h (3 Bft) S-SO 157 7,2 C 12,7 C 22,7 km/h (4 Bft)
24.04.2019 18:28 16,0 C 14,3 C 56 % 1015,9 hPa 0,0 l/m 14,2 km/h (3 Bft) S-SW 202 7,2 C 12,7 C 22,7 km/h (4 Bft)
24.04.2019 18:26 16,0 C 14,2 C 56 % 1015,9 hPa 0,0 l/m 14,5 km/h (3 Bft) S-SO 157 7,2 C 12,6 C 13,0 km/h (3 Bft)
24.04.2019 18:24 16,1 C 14,4 C 56 % 1015,9 hPa 0,0 l/m 15,4 km/h (3 Bft) S-SO 157 7,3 C 12,4 C 13,0 km/h (3 Bft)
24.04.2019 18:22 16,1 C 14,5 C 56 % 1015,9 hPa 0,0 l/m 16,9 km/h (3 Bft) S-SO 157 7,3 C 12,0 C 13,5 km/h (3 Bft)
24.04.2019 18:20 16,1 C 14,3 C 56 % 1015,7 hPa 0,0 l/m 17,9 km/h (3 Bft) SW 225 7,3 C 11,7 C 23,2 km/h (4 Bft)
24.04.2019 18:18 16,2 C 14,6 C 56 % 1015,7 hPa 0,0 l/m 19,3 km/h (3 Bft) N-NW 337 7,4 C 11,5 C 23,2 km/h (4 Bft)
24.04.2019 18:16 16,2 C 14,4 C 56 % 1015,7 hPa 0,0 l/m 18,3 km/h (3 Bft) SW 225 7,4 C 11,7 C 22,9 km/h (4 Bft)
24.04.2019 18:14 16,2 C 14,5 C 56 % 1015,7 hPa 0,0 l/m 19,3 km/h (3 Bft) SO 135 7,4 C 11,5 C 39,6 km/h (6 Bft)
24.04.2019 18:12 16,2 C 14,6 C 56 % 1015,7 hPa 0,0 l/m 20,0 km/h (4 Bft) S-SW 202 7,4 C 11,3 C 39,6 km/h (6 Bft)
24.04.2019 18:10 16,3 C 14,7 C 56 % 1015,7 hPa 0,0 l/m 19,6 km/h (3 Bft) SW 225 7,5 C 11,5 C 31,4 km/h (5 Bft)
24.04.2019 18:08 16,3 C 14,7 C 55 % 1015,7 hPa 0,0 l/m 20,0 km/h (4 Bft) S-SW 202 7,2 C 11,4 C 27,5 km/h (4 Bft)
24.04.2019 18:06 16,4 C 14,6 C 55 % 1015,7 hPa 0,0 l/m 22,4 km/h (4 Bft) S 180 7,3 C 11,0 C 29,7 km/h (5 Bft)
24.04.2019 18:04 16,5 C 14,6 C 55 % 1015,7 hPa 0,0 l/m 23,2 km/h (4 Bft) S 180 7,4 C 11,0 C 29,7 km/h (5 Bft)
24.04.2019 18:02 16,5 C 14,9 C 55 % 1015,7 hPa 0,0 l/m 21,2 km/h (4 Bft) SW 225 7,4 C 11,4 C 31,1 km/h (5 Bft)
24.04.2019 18:00 16,5 C 14,7 C 55 % 1016,0 hPa 0,0 l/m 21,2 km/h (4 Bft) S-SW 202 7,4 C 11,4 C 32,6 km/h (5 Bft)
24.04.2019 17:58 16,6 C 14,8 C 55 % 1016,0 hPa 0,0 l/m 20,0 km/h (4 Bft) SW 225 7,5 C 11,8 C 47,6 km/h (6 Bft)
24.04.2019 17:56 16,6 C 15,0 C 55 % 1016,0 hPa 0,0 l/m 20,3 km/h (4 Bft) SO 135 7,5 C 11,7 C 47,6 km/h (6 Bft)
24.04.2019 17:54 16,6 C 15,0 C 54 % 1016,0 hPa 0,0 l/m 18,1 km/h (3 Bft) S 180 7,3 C 12,3 C 24,4 km/h (4 Bft)
24.04.2019 17:52 16,6 C 15,1 C 54 % 1016,0 hPa 0,0 l/m 17,6 km/h (3 Bft) S 180 7,3 C 12,4 C 24,4 km/h (4 Bft)
24.04.2019 17:50 16,7 C 15,3 C 54 % 1016,0 hPa 0,0 l/m 17,9 km/h (3 Bft) SO 135 7,3 C 12,5 C 25,1 km/h (4 Bft)
24.04.2019 17:48 16,8 C 15,3 C 54 % 1016,0 hPa 0,0 l/m 18,8 km/h (3 Bft) S-SO 157 7,4 C 12,4 C 25,1 km/h (4 Bft)
24.04.2019 17:46 16,8 C 15,2 C 54 % 1016,0 hPa 0,0 l/m 19,1 km/h (3 Bft) SO 135 7,4 C 12,3 C 25,1 km/h (4 Bft)
24.04.2019 17:44 17,1 C 15,2 C 54 % 1016,0 hPa 0,0 l/m 17,6 km/h (3 Bft) SW 225 7,7 C 13,0 C 24,6 km/h (4 Bft)
24.04.2019 17:42 17,0 C 15,4 C 54 % 1016,0 hPa 0,0 l/m 17,6 km/h (3 Bft) S 180 7,6 C 12,9 C 25,8 km/h (4 Bft)
24.04.2019 17:40 17,0 C 15,9 C 54 % 1016,1 hPa 0,0 l/m 18,6 km/h (3 Bft) S-SO 157 7,6 C 12,7 C 37,4 km/h (5 Bft)
24.04.2019 17:38 17,1 C 15,9 C 54 % 1016,1 hPa 0,0 l/m 18,1 km/h (3 Bft) S 180 7,7 C 12,9 C 37,4 km/h (5 Bft)
24.04.2019 17:36 17,2 C 15,9 C 54 % 1016,1 hPa 0,0 l/m 16,4 km/h (3 Bft) O 90 7,8 C 13,5 C 24,6 km/h (4 Bft)
24.04.2019 17:34 17,2 C 15,4 C 53 % 1016,1 hPa 0,0 l/m 15,7 km/h (3 Bft) S-SO 157 7,5 C 13,7 C 24,6 km/h (4 Bft)
24.04.2019 17:32 17,4 C 15,1 C 53 % 1016,1 hPa 0,0 l/m 14,0 km/h (3 Bft) O-NO 67 7,7 C 14,4 C 23,2 km/h (4 Bft)
24.04.2019 17:30 17,5 C 15,2 C 53 % 1016,1 hPa 0,0 l/m 14,0 km/h (3 Bft) S-SO 157 7,8 C 14,5 C 27,8 km/h (4 Bft)
24.04.2019 17:28 17,6 C 15,6 C 53 % 1016,1 hPa 0,0 l/m 13,5 km/h (3 Bft) W-SW 247 7,9 C 14,8 C 27,8 km/h (4 Bft)
24.04.2019 17:26 17,8 C 16,3 C 53 % 1016,1 hPa 0,0 l/m 13,0 km/h (3 Bft) SW 225 8,1 C 15,2 C 19,1 km/h (3 Bft)
24.04.2019 17:24 17,6 C 17,2 C 53 % 1016,1 hPa 0,0 l/m 12,6 km/h (3 Bft) S 180 7,9 C 15,1 C 14,2 km/h (3 Bft)
24.04.2019 17:22 17,6 C 16,9 C 53 % 1016,1 hPa 0,0 l/m 14,0 km/h (3 Bft) S 180 7,9 C 14,6 C 24,1 km/h (4 Bft)
24.04.2019 17:20 17,8 C 17,8 C 53 % 1015,8 hPa 0,0 l/m 14,2 km/h (3 Bft) SO 135 8,1 C 14,8 C 24,1 km/h (4 Bft)
24.04.2019 17:18 17,9 C 18,2 C 53 % 1015,8 hPa 0,0 l/m 14,5 km/h (3 Bft) SW 225 8,2 C 14,8 C 10,9 km/h (2 Bft)
24.04.2019 17:16 17,9 C 18,1 C 53 % 1015,8 hPa 0,0 l/m 16,2 km/h (3 Bft) S-SO 157 8,2 C 14,4 C 20,0 km/h (4 Bft)
24.04.2019 17:14 17,9 C 18,2 C 53 % 1015,8 hPa 0,0 l/m 15,4 km/h (3 Bft) O-SO 112 8,2 C 14,6 C 20,0 km/h (4 Bft)
24.04.2019 17:12 18,0 C 18,1 C 52 % 1015,8 hPa 0,0 l/m 15,4 km/h (3 Bft) S 180 8,0 C 14,7 C 17,6 km/h (3 Bft)
24.04.2019 17:10 18,1 C 18,5 C 52 % 1015,8 hPa 0,0 l/m 16,2 km/h (3 Bft) S-SO 157 8,1 C 14,6 C 34,3 km/h (5 Bft)
24.04.2019 17:08 18,1 C 18,0 C 52 % 1015,8 hPa 0,0 l/m 16,7 km/h (3 Bft) S 180 8,1 C 14,5 C 34,3 km/h (5 Bft)
24.04.2019 17:06 18,2 C 17,6 C 52 % 1015,8 hPa 0,0 l/m 17,4 km/h (3 Bft) S-SW 202 8,2 C 14,5 C 17,9 km/h (3 Bft)
24.04.2019 17:04 18,2 C 17,5 C 52 % 1015,8 hPa 0,0 l/m 17,9 km/h (3 Bft) SW 225 8,2 C 14,3 C 15,4 km/h (3 Bft)
24.04.2019 17:02 18,1 C 17,8 C 52 % 1015,8 hPa 0,0 l/m 19,1 km/h (3 Bft) S 180 8,1 C 13,9 C 23,2 km/h (4 Bft)
24.04.2019 17:00 18,0 C 17,8 C 52 % 1015,9 hPa 0,0 l/m 19,3 km/h (3 Bft) W-SW 247 8,0 C 13,8 C 23,2 km/h (4 Bft)
24.04.2019 16:58 18,2 C 17,8 C 52 % 1015,9 hPa 0,0 l/m 18,8 km/h (3 Bft) SO 135 8,2 C 14,1 C 21,0 km/h (4 Bft)
24.04.2019 16:56 18,3 C 17,7 C 52 % 1015,9 hPa 0,0 l/m 17,6 km/h (3 Bft) SW 225 8,3 C 14,5 C 22,4 km/h (4 Bft)
24.04.2019 16:54 18,3 C 18,7 C 51 % 1015,9 hPa 0,0 l/m 16,4 km/h (3 Bft) S 180 8,0 C 14,8 C 27,0 km/h (4 Bft)
24.04.2019 16:52 18,4 C 18,8 C 51 % 1015,9 hPa 0,0 l/m 16,4 km/h (3 Bft) S 180 8,1 C 15,0 C 27,0 km/h (4 Bft)
24.04.2019 16:50 18,4 C 18,1 C 51 % 1015,9 hPa 0,0 l/m 15,2 km/h (3 Bft) S-SW 202 8,1 C 15,3 C 17,1 km/h (3 Bft)
24.04.2019 16:48 18,5 C 18,8 C 51 % 1015,9 hPa 0,0 l/m 14,2 km/h (3 Bft) O 90 8,2 C 15,6 C 13,8 km/h (3 Bft)
24.04.2019 16:46 18,5 C 18,2 C 51 % 1015,9 hPa 0,0 l/m 13,8 km/h (3 Bft) S-SO 157 8,2 C 15,8 C 13,8 km/h (3 Bft)
24.04.2019 16:44 18,6 C 18,2 C 51 % 1015,9 hPa 0,0 l/m 13,5 km/h (3 Bft) S 180 8,3 C 16,0 C 31,1 km/h (5 Bft)
24.04.2019 16:42 18,7 C 18,6 C 51 % 1015,9 hPa 0,0 l/m 12,3 km/h (3 Bft) SO 135 8,4 C 16,4 C 39,1 km/h (6 Bft)
24.04.2019 16:40 18,9 C 19,3 C 51 % 1015,9 hPa 0,0 l/m 12,1 km/h (2 Bft) W-SW 247 8,5 C 16,7 C 39,1 km/h (6 Bft)
24.04.2019 16:38 19,0 C 20,0 C 51 % 1015,9 hPa 0,0 l/m 11,8 km/h (2 Bft) S-SO 157 8,6 C 16,9 C 16,4 km/h (3 Bft)
24.04.2019 16:36 18,8 C 19,5 C 51 % 1015,9 hPa 0,0 l/m 12,1 km/h (2 Bft) S-SW 202 8,4 C 16,6 C 12,3 km/h (3 Bft)
24.04.2019 16:34 18,8 C 19,8 C 51 % 1015,9 hPa 0,0 l/m 12,1 km/h (2 Bft) SO 135 8,4 C 16,6 C 17,9 km/h (3 Bft)
24.04.2019 16:32 18,7 C 19,3 C 51 % 1015,9 hPa 0,0 l/m 12,1 km/h (2 Bft) W-SW 247 8,4 C 16,5 C 17,9 km/h (3 Bft)
24.04.2019 16:30 18,6 C 19,4 C 51 % 1015,9 hPa 0,0 l/m 12,8 km/h (3 Bft) O-SO 112 8,3 C 16,2 C 16,2 km/h (3 Bft)
24.04.2019 16:28 18,8 C 19,4 C 51 % 1015,9 hPa 0,0 l/m 13,0 km/h (3 Bft) O-NO 67 8,4 C 16,3 C 16,2 km/h (3 Bft)
24.04.2019 16:26 18,9 C 19,6 C 51 % 1015,9 hPa 0,0 l/m 14,0 km/h (3 Bft) S 180 8,5 C 16,2 C 23,2 km/h (4 Bft)
24.04.2019 16:24 18,8 C 19,8 C 51 % 1015,9 hPa 0,0 l/m 15,0 km/h (3 Bft) S 180 8,4 C 15,8 C 23,2 km/h (4 Bft)
24.04.2019 16:22 18,7 C 19,4 C 51 % 1015,9 hPa 0,0 l/m 15,2 km/h (3 Bft) S-SO 157 8,4 C 15,6 C 22,0 km/h (4 Bft)
24.04.2019 16:20 18,9 C 19,8 C 51 % 1015,8 hPa 0,0 l/m 16,4 km/h (3 Bft) SO 135 8,5 C 15,6 C 22,0 km/h (4 Bft)
24.04.2019 16:18 18,9 C 19,6 C 51 % 1015,8 hPa 0,0 l/m 16,4 km/h (3 Bft) SO 135 8,5 C 15,6 C 20,3 km/h (4 Bft)
24.04.2019 16:16 18,7 C 19,3 C 51 % 1015,8 hPa 0,0 l/m 15,0 km/h (3 Bft) SO 135 8,4 C 15,7 C 29,7 km/h (5 Bft)
24.04.2019 16:14 18,8 C 19,5 C 51 % 1015,8 hPa 0,0 l/m 14,7 km/h (3 Bft) SO 135 8,4 C 15,9 C 29,7 km/h (5 Bft)
24.04.2019 16:12 18,9 C 19,4 C 50 % 1015,8 hPa 0,0 l/m 14,2 km/h (3 Bft) SO 135 8,2 C 16,1 C 28,5 km/h (4 Bft)
24.04.2019 16:10 19,1 C 19,6 C 50 % 1015,8 hPa 0,0 l/m 14,2 km/h (3 Bft) SW 225 8,4 C 16,4 C 28,5 km/h (4 Bft)
24.04.2019 16:08 19,3 C 20,3 C 50 % 1015,8 hPa 0,0 l/m 15,0 km/h (3 Bft) S-SO 157 8,6 C 16,4 C 18,8 km/h (3 Bft)
24.04.2019 16:06 19,2 C 20,0 C 50 % 1015,8 hPa 0,0 l/m 16,2 km/h (3 Bft) SO 135 8,5 C 16,0 C 18,8 km/h (3 Bft)
24.04.2019 16:04 19,0 C 19,6 C 50 % 1015,8 hPa 0,0 l/m 16,4 km/h (3 Bft) SO 135 8,3 C 15,7 C 27,5 km/h (4 Bft)
24.04.2019 16:02 19,1 C 19,8 C 50 % 1015,8 hPa 0,0 l/m 15,7 km/h (3 Bft) SO 135 8,4 C 16,0 C 27,5 km/h (4 Bft)
24.04.2019 16:00 19,2 C 19,9 C 50 % 1015,6 hPa 0,0 l/m 15,2 km/h (3 Bft) SW 225 8,5 C 16,2 C 27,8 km/h (4 Bft)
24.04.2019 15:58 19,2 C 19,1 C 50 % 1015,6 hPa 0,0 l/m 15,0 km/h (3 Bft) S-SO 157 8,5 C 16,3 C 27,8 km/h (4 Bft)
24.04.2019 15:56 19,4 C 19,4 C 51 % 1015,6 hPa 0,0 l/m 12,8 km/h (3 Bft) S-SO 157 9,0 C 17,1 C 13,5 km/h (3 Bft)
24.04.2019 15:54 19,3 C 20,2 C 51 % 1015,6 hPa 0,0 l/m 13,5 km/h (3 Bft) S-SO 157 8,9 C 16,8 C 19,8 km/h (3 Bft)
24.04.2019 15:52 19,5 C 20,7 C 51 % 1015,6 hPa 0,0 l/m 14,0 km/h (3 Bft) S-SO 157 9,1 C 16,9 C 19,8 km/h (3 Bft)
24.04.2019 15:50 19,3 C 20,4 C 51 % 1015,6 hPa 0,0 l/m 13,5 km/h (3 Bft) W-SW 247 8,9 C 16,8 C 17,1 km/h (3 Bft)
24.04.2019 15:48 19,3 C 20,2 C 51 % 1015,6 hPa 0,0 l/m 14,0 km/h (3 Bft) S-SO 157 8,9 C 16,7 C 17,1 km/h (3 Bft)
24.04.2019 15:46 19,1 C 19,9 C 51 % 1015,6 hPa 0,0 l/m 15,0 km/h (3 Bft) S-SO 157 8,7 C 16,2 C 19,3 km/h (3 Bft)
24.04.2019 15:44 19,1 C 20,0 C 51 % 1015,6 hPa 0,0 l/m 14,0 km/h (3 Bft) S-SO 157 8,7 C 16,4 C 19,3 km/h (3 Bft)
24.04.2019 15:42 19,0 C 19,7 C 51 % 1015,6 hPa 0,0 l/m 12,8 km/h (3 Bft) W-SW 247 8,6 C 16,6 C 20,0 km/h (4 Bft)
24.04.2019 15:40 19,1 C 20,2 C 51 % 1015,8 hPa 0,0 l/m 14,0 km/h (3 Bft) SO 135 8,7 C 16,4 C 20,0 km/h (4 Bft)
24.04.2019 15:38 19,2 C 20,3 C 51 % 1015,8 hPa 0,0 l/m 13,3 km/h (3 Bft) SO 135 8,8 C 16,7 C 24,4 km/h (4 Bft)
24.04.2019 15:36 19,3 C 20,2 C 51 % 1015,8 hPa 0,0 l/m 13,8 km/h (3 Bft) SW 225 8,9 C 16,7 C 24,4 km/h (4 Bft)
24.04.2019 15:34 19,1 C 20,4 C 51 % 1015,8 hPa 0,0 l/m 14,2 km/h (3 Bft) SO 135 8,7 C 16,4 C 15,4 km/h (3 Bft)
24.04.2019 15:32 18,9 C 19,8 C 51 % 1015,8 hPa 0,0 l/m 15,2 km/h (3 Bft) O-SO 112 8,5 C 15,9 C 31,9 km/h (5 Bft)
24.04.2019 15:30 18,8 C 19,9 C 51 % 1015,8 hPa 0,0 l/m 15,0 km/h (3 Bft) S 180 8,4 C 15,8 C 31,9 km/h (5 Bft)
24.04.2019 15:28 18,8 C 19,6 C 51 % 1015,8 hPa 0,0 l/m 15,0 km/h (3 Bft) O-SO 112 8,4 C 15,8 C 18,6 km/h (3 Bft)
24.04.2019 15:26 18,8 C 19,7 C 52 % 1015,8 hPa 0,0 l/m 14,7 km/h (3 Bft) S-SO 157 8,7 C 15,9 C 19,8 km/h (3 Bft)
24.04.2019 15:24 18,7 C 19,5 C 51 % 1015,8 hPa 0,0 l/m 13,8 km/h (3 Bft) S-SO 157 8,4 C 16,0 C 22,4 km/h (4 Bft)
24.04.2019 15:22 18,9 C 19,8 C 52 % 1015,8 hPa 0,0 l/m 13,3 km/h (3 Bft) SO 135 8,8 C 16,4 C 22,4 km/h (4 Bft)
24.04.2019 15:20 18,9 C 20,2 C 52 % 1015,9 hPa 0,0 l/m 14,5 km/h (3 Bft) SW 225 8,8 C 16,0 C 18,6 km/h (3 Bft)
24.04.2019 15:18 18,9 C 20,2 C 52 % 1015,9 hPa 0,0 l/m 14,0 km/h (3 Bft) S 180 8,8 C 16,2 C 23,7 km/h (4 Bft)
24.04.2019 15:16 18,8 C 20,0 C 52 % 1015,9 hPa 0,0 l/m 14,0 km/h (3 Bft) S 180 8,7 C 16,1 C 23,7 km/h (4 Bft)
24.04.2019 15:14 18,8 C 19,7 C 51 % 1015,9 hPa 0,0 l/m 14,5 km/h (3 Bft) SO 135 8,4 C 15,9 C 15,0 km/h (3 Bft)
24.04.2019 15:12 18,8 C 19,6 C 51 % 1015,9 hPa 0,0 l/m 14,0 km/h (3 Bft) SO 135 8,4 C 16,1 C 61,6 km/h (7 Bft)
24.04.2019 15:10 18,9 C 19,7 C 51 % 1015,9 hPa 0,0 l/m 12,8 km/h (3 Bft) SW 225 8,5 C 16,5 C 61,6 km/h (7 Bft)
24.04.2019 15:08 18,8 C 19,1 C 51 % 1015,9 hPa 0,0 l/m 12,3 km/h (3 Bft) SO 135 8,4 C 16,6 C 11,6 km/h (2 Bft)
24.04.2019 15:06 18,8 C 18,9 C 51 % 1015,9 hPa 0,0 l/m 12,8 km/h (3 Bft) SO 135 8,4 C 16,4 C 14,2 km/h (3 Bft)
24.04.2019 15:04 19,0 C 18,9 C 51 % 1015,9 hPa 0,0 l/m 12,3 km/h (3 Bft) SO 135 8,6 C 16,8 C 16,7 km/h (3 Bft)
24.04.2019 15:02 19,0 C 19,3 C 51 % 1015,9 hPa 0,0 l/m 13,3 km/h (3 Bft) SO 135 8,6 C 16,5 C 17,9 km/h (3 Bft)
24.04.2019 15:00 18,9 C 19,2 C 51 % 1015,9 hPa 0,0 l/m 12,8 km/h (3 Bft) S 180 8,5 C 16,5 C 23,9 km/h (4 Bft)
24.04.2019 14:58 18,9 C 19,1 C 51 % 1015,9 hPa 0,0 l/m 11,6 km/h (2 Bft) S-SO 157 8,5 C 16,9 C 23,9 km/h (4 Bft)
24.04.2019 14:56 19,1 C 19,5 C 51 % 1015,9 hPa 0,0 l/m 10,4 km/h (2 Bft) O-NO 67 8,7 C 17,5 C 13,0 km/h (3 Bft)
24.04.2019 14:54 19,1 C 19,6 C 50 % 1015,9 hPa 0,0 l/m 11,1 km/h (2 Bft) S 180 8,4 C 17,3 C 16,7 km/h (3 Bft)
24.04.2019 14:52 19,4 C 20,0 C 50 % 1015,9 hPa 0,0 l/m 11,3 km/h (2 Bft) S-SO 157 8,7 C 17,6 C 16,7 km/h (3 Bft)
24.04.2019 14:50 19,4 C 20,4 C 50 % 1015,9 hPa 0,0 l/m 11,8 km/h (2 Bft) W-SW 247 8,7 C 17,4 C 8,4 km/h (2 Bft)
24.04.2019 14:48 19,4 C 20,2 C 51 % 1015,9 hPa 0,0 l/m 13,3 km/h (3 Bft) S 180 9,0 C 17,0 C 12,8 km/h (3 Bft)
24.04.2019 14:46 19,1 C 19,8 C 50 % 1015,9 hPa 0,0 l/m 14,2 km/h (3 Bft) S-SO 157 8,4 C 16,4 C 21,2 km/h (4 Bft)
24.04.2019 14:44 19,0 C 19,5 C 50 % 1015,9 hPa 0,0 l/m 14,2 km/h (3 Bft) W-SW 247 8,3 C 16,2 C 21,2 km/h (4 Bft)
24.04.2019 14:42 19,1 C 19,6 C 50 % 1015,9 hPa 0,0 l/m 13,8 km/h (3 Bft) S 180 8,4 C 16,5 C 13,3 km/h (3 Bft)
24.04.2019 14:40 19,1 C 19,5 C 50 % 1015,9 hPa 0,0 l/m 11,8 km/h (2 Bft) S 180 8,4 C 17,1 C 11,6 km/h (2 Bft)
24.04.2019 14:38 19,0 C 19,3 C 50 % 1015,9 hPa 0,0 l/m 10,4 km/h (2 Bft) S 180 8,3 C 17,4 C 24,4 km/h (4 Bft)
24.04.2019 14:36 19,1 C 19,3 C 50 % 1015,9 hPa 0,0 l/m 9,9 km/h (2 Bft) W-SW 247 8,4 C 17,7 C 24,4 km/h (4 Bft)
24.04.2019 14:34 19,1 C 19,0 C 50 % 1015,9 hPa 0,0 l/m 9,9 km/h (2 Bft) S 180 8,4 C 17,7 C 19,8 km/h (3 Bft)
24.04.2019 14:32 19,3 C 19,2 C 50 % 1015,9 hPa 0,0 l/m 10,6 km/h (2 Bft) SO 135 8,6 C 17,7 C 19,8 km/h (3 Bft)
24.04.2019 14:30 19,3 C 19,4 C 50 % 1015,9 hPa 0,0 l/m 11,1 km/h (2 Bft) SO 135 8,6 C 17,5 C 9,7 km/h (2 Bft)
24.04.2019 14:28 19,3 C 19,6 C 50 % 1015,9 hPa 0,0 l/m 11,6 km/h (2 Bft) SO 135 8,6 C 17,3 C 9,7 km/h (2 Bft)
24.04.2019 14:26 19,2 C 19,4 C 49 % 1015,9 hPa 0,0 l/m 12,6 km/h (3 Bft) W-SW 247 8,2 C 16,9 C 17,9 km/h (3 Bft)
24.04.2019 14:24 19,3 C 19,4 C 49 % 1015,9 hPa 0,0 l/m 13,0 km/h (3 Bft) S-SO 157 8,3 C 16,9 C 22,2 km/h (4 Bft)
24.04.2019 14:22 19,3 C 19,4 C 49 % 1015,9 hPa 0,0 l/m 14,2 km/h (3 Bft) S-SO 157 8,3 C 16,6 C 22,2 km/h (4 Bft)
24.04.2019 14:20 19,3 C 19,5 C 49 % 1015,8 hPa 0,0 l/m 13,5 km/h (3 Bft) S 180 8,3 C 16,8 C 18,1 km/h (3 Bft)
24.04.2019 14:18 19,5 C 19,9 C 49 % 1015,8 hPa 0,0 l/m 15,0 km/h (3 Bft) S 180 8,5 C 16,6 C 21,0 km/h (4 Bft)
24.04.2019 14:16 19,6 C 20,0 C 49 % 1015,8 hPa 0,0 l/m 15,7 km/h (3 Bft) SO 135 8,6 C 16,6 C 21,0 km/h (4 Bft)
24.04.2019 14:14 19,7 C 19,9 C 49 % 1015,8 hPa 0,0 l/m 15,9 km/h (3 Bft) O 90 8,7 C 16,7 C 24,1 km/h (4 Bft)
24.04.2019 14:12 19,9 C 20,3 C 49 % 1015,8 hPa 0,0 l/m 16,7 km/h (3 Bft) W-SW 247 8,9 C 16,7 C 24,1 km/h (4 Bft)
24.04.2019 14:10 19,6 C 19,9 C 49 % 1015,8 hPa 0,0 l/m 16,2 km/h (3 Bft) N-NW 337 8,6 C 16,5 C 39,8 km/h (6 Bft)
24.04.2019 14:08 19,7 C 19,8 C 48 % 1015,8 hPa 0,0 l/m 15,9 km/h (3 Bft) SO 135 8,4 C 16,7 C 39,8 km/h (6 Bft)
24.04.2019 14:06 19,8 C 20,3 C 48 % 1015,8 hPa 0,0 l/m 14,0 km/h (3 Bft) S 180 8,5 C 17,3 C 27,0 km/h (4 Bft)
24.04.2019 14:04 19,8 C 19,8 C 48 % 1015,8 hPa 0,0 l/m 14,2 km/h (3 Bft) S-SW 202 8,5 C 17,2 C 27,8 km/h (4 Bft)
24.04.2019 14:02 19,9 C 20,4 C 48 % 1015,8 hPa 0,0 l/m 13,8 km/h (3 Bft) S 180 8,6 C 17,4 C 27,8 km/h (4 Bft)
24.04.2019 14:00 20,3 C 20,9 C 48 % 1015,6 hPa 0,0 l/m 11,8 km/h (2 Bft) SO 135 8,9 C 18,4 C 17,1 km/h (3 Bft)
24.04.2019 13:58 20,0 C 20,4 C 48 % 1015,6 hPa 0,0 l/m 12,6 km/h (3 Bft) S 180 8,7 C 17,9 C 17,1 km/h (3 Bft)
24.04.2019 13:56 19,9 C 20,4 C 49 % 1015,6 hPa 0,0 l/m 12,8 km/h (3 Bft) SO 135 8,9 C 17,7 C 13,8 km/h (3 Bft)
24.04.2019 13:54 19,8 C 20,1 C 48 % 1015,6 hPa 0,0 l/m 12,3 km/h (3 Bft) SW 225 8,5 C 17,7 C 10,9 km/h (2 Bft)
24.04.2019 13:52 20,0 C 20,5 C 48 % 1015,6 hPa 0,0 l/m 11,1 km/h (2 Bft) SO 135 8,7 C 18,3 C 26,1 km/h (4 Bft)
24.04.2019 13:50 19,9 C 20,2 C 48 % 1015,6 hPa 0,0 l/m 10,9 km/h (2 Bft) SW 225 8,6 C 18,2 C 26,1 km/h (4 Bft)
24.04.2019 13:48 19,8 C 20,2 C 48 % 1015,6 hPa 0,0 l/m 10,9 km/h (2 Bft) NO 45 8,5 C 18,1 C 13,3 km/h (3 Bft)
24.04.2019 13:46 20,0 C 20,6 C 48 % 1015,6 hPa 0,0 l/m 12,8 km/h (3 Bft) S-SO 157 8,7 C 17,8 C 13,3 km/h (3 Bft)
24.04.2019 13:44 20,1 C 20,8 C 48 % 1015,6 hPa 0,0 l/m 14,0 km/h (3 Bft) S-SO 157 8,7 C 17,6 C 20,5 km/h (4 Bft)
24.04.2019 13:42 19,9 C 20,3 C 48 % 1015,6 hPa 0,0 l/m 14,7 km/h (3 Bft) S 180 8,6 C 17,2 C 20,5 km/h (4 Bft)
24.04.2019 13:40 19,9 C 20,5 C 48 % 1015,4 hPa 0,0 l/m 15,0 km/h (3 Bft) S-SO 157 8,6 C 17,1 C 11,6 km/h (2 Bft)
24.04.2019 13:38 19,8 C 20,5 C 47 % 1015,4 hPa 0,0 l/m 14,2 km/h (3 Bft) S 180 8,2 C 17,2 C 49,5 km/h (6 Bft)
24.04.2019 13:36 20,0 C 20,2 C 48 % 1015,4 hPa 0,0 l/m 13,5 km/h (3 Bft) SW 225 8,7 C 17,6 C 49,5 km/h (6 Bft)
24.04.2019 13:34 19,9 C 20,4 C 48 % 1015,4 hPa 0,0 l/m 9,9 km/h (2 Bft) O-NO 67 8,6 C 18,6 C 14,7 km/h (3 Bft)
24.04.2019 13:32 20,2 C 20,9 C 48 % 1015,4 hPa 0,0 l/m 8,7 km/h (2 Bft) S 180 8,8 C 19,3 C 22,2 km/h (4 Bft)
24.04.2019 13:30 20,3 C 20,9 C 49 % 1015,4 hPa 0,0 l/m 8,9 km/h (2 Bft) SO 135 9,2 C 19,3 C 22,2 km/h (4 Bft)
24.04.2019 13:28 20,4 C 21,3 C 49 % 1015,4 hPa 0,0 l/m 8,0 km/h (2 Bft) O-NO 67 9,3 C 19,8 C 10,9 km/h (2 Bft)
24.04.2019 13:26 20,1 C 20,9 C 49 % 1015,4 hPa 0,0 l/m 7,7 km/h (2 Bft) O-SO 112 9,0 C 19,6 C 10,6 km/h (2 Bft)
24.04.2019 13:24 20,0 C 20,9 C 49 % 1015,4 hPa 0,0 l/m 8,4 km/h (2 Bft) W-SW 247 9,0 C 19,2 C 8,2 km/h (2 Bft)
24.04.2019 13:22 20,1 C 21,0 C 49 % 1015,4 hPa 0,0 l/m 8,4 km/h (2 Bft) NO 45 9,0 C 19,3 C 8,2 km/h (2 Bft)
24.04.2019 13:20 19,9 C 20,9 C 49 % 1015,5 hPa 0,0 l/m 8,2 km/h (2 Bft) W 270 8,9 C 19,2 C 11,8 km/h (2 Bft)
24.04.2019 13:18 19,7 C 20,1 C 49 % 1015,5 hPa 0,0 l/m 8,9 km/h (2 Bft) NW 315 8,7 C 18,7 C 11,8 km/h (2 Bft)
24.04.2019 13:16 19,8 C 20,9 C 49 % 1015,5 hPa 0,0 l/m 9,2 km/h (2 Bft) N-NO 22 8,8 C 18,7 C 10,4 km/h (2 Bft)
24.04.2019 13:14 19,9 C 21,0 C 49 % 1015,5 hPa 0,0 l/m 9,7 km/h (2 Bft) N-NW 337 8,9 C 18,6 C 10,9 km/h (2 Bft)
24.04.2019 13:12 19,9 C 21,1 C 49 % 1015,5 hPa 0,0 l/m 8,7 km/h (2 Bft) S 180 8,9 C 19,0 C 13,3 km/h (3 Bft)
24.04.2019 13:10 19,6 C 20,6 C 49 % 1015,5 hPa 0,0 l/m 8,4 km/h (2 Bft) S-SO 157 8,6 C 18,8 C 17,1 km/h (3 Bft)
24.04.2019 13:08 19,6 C 20,5 C 49 % 1015,5 hPa 0,0 l/m 7,5 km/h (2 Bft) S 180 8,6 C 19,1 C 17,1 km/h (3 Bft)
24.04.2019 13:06 19,7 C 20,4 C 49 % 1015,5 hPa 0,0 l/m 7,2 km/h (2 Bft) W 270 8,7 C 19,4 C 15,4 km/h (3 Bft)
24.04.2019 13:04 19,8 C 20,5 C 50 % 1015,5 hPa 0,0 l/m 6,5 km/h (2 Bft) O-SO 112 9,1 C 19,8 C 6,5 km/h (2 Bft)
24.04.2019 13:02 19,7 C 20,7 C 50 % 1015,5 hPa 0,0 l/m 7,2 km/h (2 Bft) S-SO 157 9,0 C 19,4 C 6,0 km/h (2 Bft)
24.04.2019 13:00 19,7 C 20,7 C 50 % 1015,4 hPa 0,0 l/m 7,7 km/h (2 Bft) S-SO 157 9,0 C 19,2 C 6,0 km/h (2 Bft)
24.04.2019 12:58 19,5 C 20,9 C 49 % 1015,4 hPa 0,0 l/m 8,4 km/h (2 Bft) N-NW 337 8,5 C 18,7 C 9,9 km/h (2 Bft)
24.04.2019 12:56 19,7 C 21,2 C 50 % 1015,4 hPa 0,0 l/m 8,2 km/h (2 Bft) SO 135 9,0 C 19,0 C 9,9 km/h (2 Bft)
24.04.2019 12:54 19,8 C 21,2 C 50 % 1015,4 hPa 0,0 l/m 7,5 km/h (2 Bft) SO 135 9,1 C 19,3 C 12,6 km/h (3 Bft)
24.04.2019 12:52 19,6 C 20,9 C 50 % 1015,4 hPa 0,0 l/m 7,5 km/h (2 Bft) N-NO 22 8,9 C 19,1 C 14,7 km/h (3 Bft)
24.04.2019 12:50 19,4 C 21,0 C 50 % 1015,4 hPa 0,0 l/m 8,2 km/h (2 Bft) NW 315 8,7 C 18,6 C 14,7 km/h (3 Bft)
24.04.2019 12:48 19,3 C 20,9 C 50 % 1015,4 hPa 0,0 l/m 10,1 km/h (2 Bft) S 180 8,6 C 17,8 C 12,6 km/h (3 Bft)
24.04.2019 12:46 19,4 C 20,6 C 51 % 1015,4 hPa 0,0 l/m 11,8 km/h (2 Bft) SO 135 9,0 C 17,4 C 8,7 km/h (2 Bft)
24.04.2019 12:44 19,0 C 19,8 C 50 % 1015,4 hPa 0,0 l/m 15,2 km/h (3 Bft) NW 315 8,3 C 16,0 C 9,7 km/h (2 Bft)
24.04.2019 12:42 18,9 C 19,7 C 51 % 1015,4 hPa 0,0 l/m 15,9 km/h (3 Bft) W 270 8,5 C 15,7 C 11,6 km/h (2 Bft)
24.04.2019 12:40 18,7 C 19,3 C 50 % 1015,6 hPa 0,0 l/m 15,2 km/h (3 Bft) SO 135 8,1 C 15,6 C 34,0 km/h (5 Bft)
24.04.2019 12:38 19,0 C 19,6 C 50 % 1015,6 hPa 0,0 l/m 13,0 km/h (3 Bft) SO 135 8,3 C 16,6 C 34,0 km/h (5 Bft)
24.04.2019 12:36 18,8 C 19,2 C 50 % 1015,6 hPa 0,0 l/m 10,9 km/h (2 Bft) S 180 8,2 C 17,0 C 25,1 km/h (4 Bft)
24.04.2019 12:34 19,1 C 20,3 C 50 % 1015,6 hPa 0,0 l/m 8,9 km/h (2 Bft) S-SO 157 8,4 C 18,0 C 25,1 km/h (4 Bft)
24.04.2019 12:32 19,3 C 20,4 C 51 % 1015,6 hPa 0,0 l/m 7,2 km/h (2 Bft) S 180 8,9 C 19,0 C 15,4 km/h (3 Bft)
24.04.2019 12:30 19,4 C 20,1 C 51 % 1015,6 hPa 0,0 l/m 7,0 km/h (2 Bft) N-NO 22 9,0 C 19,1 C 7,7 km/h (2 Bft)
24.04.2019 12:28 19,5 C 20,5 C 51 % 1015,6 hPa 0,0 l/m 7,7 km/h (2 Bft) S 180 9,1 C 18,9 C 8,4 km/h (2 Bft)
24.04.2019 12:26 19,7 C 21,1 C 51 % 1015,6 hPa 0,0 l/m 8,7 km/h (2 Bft) S-SO 157 9,3 C 18,8 C 11,3 km/h (2 Bft)
24.04.2019 12:24 19,4 C 20,7 C 51 % 1015,6 hPa 0,0 l/m 9,4 km/h (2 Bft) O-NO 67 9,0 C 18,2 C 11,3 km/h (2 Bft)
24.04.2019 12:22 18,9 C 20,0 C 51 % 1015,6 hPa 0,0 l/m 10,4 km/h (2 Bft) O-SO 112 8,5 C 17,3 C 12,3 km/h (3 Bft)
24.04.2019 12:20 18,9 C 20,0 C 51 % 1015,3 hPa 0,0 l/m 11,8 km/h (2 Bft) S-SW 202 8,5 C 16,8 C 12,3 km/h (3 Bft)
24.04.2019 12:18 19,0 C 20,2 C 51 % 1015,3 hPa 0,0 l/m 12,8 km/h (3 Bft) O-SO 112 8,6 C 16,6 C 14,2 km/h (3 Bft)
24.04.2019 12:16 19,0 C 20,0 C 51 % 1015,3 hPa 0,0 l/m 13,0 km/h (3 Bft) SO 135 8,6 C 16,6 C 14,2 km/h (3 Bft)
24.04.2019 12:14 18,9 C 20,0 C 51 % 1015,3 hPa 0,0 l/m 12,3 km/h (3 Bft) S-SW 202 8,5 C 16,7 C 10,6 km/h (2 Bft)
24.04.2019 12:12 18,8 C 20,0 C 51 % 1015,3 hPa 0,0 l/m 11,3 km/h (2 Bft) S-SO 157 8,4 C 16,9 C 26,8 km/h (4 Bft)
24.04.2019 12:10 19,0 C 20,0 C 51 % 1015,3 hPa 0,0 l/m 9,7 km/h (2 Bft) W-SW 247 8,6 C 17,6 C 32,1 km/h (5 Bft)
24.04.2019 12:08 19,2 C 20,4 C 51 % 1015,3 hPa 0,0 l/m 8,2 km/h (2 Bft) S-SO 157 8,8 C 18,4 C 32,1 km/h (5 Bft)
24.04.2019 12:06 19,1 C 20,7 C 51 % 1015,3 hPa 0,0 l/m 6,8 km/h (2 Bft) S-SW 202 8,7 C 18,9 C 12,1 km/h (2 Bft)
24.04.2019 12:04 19,1 C 20,8 C 51 % 1015,3 hPa 0,0 l/m 7,2 km/h (2 Bft) SO 135 8,7 C 18,7 C 8,0 km/h (2 Bft)
24.04.2019 12:02 18,9 C 20,6 C 52 % 1015,3 hPa 0,0 l/m 8,4 km/h (2 Bft) SW 225 8,8 C 18,0 C 12,1 km/h (2 Bft)
24.04.2019 12:00 18,9 C 20,6 C 52 % 1015,2 hPa 0,0 l/m 8,2 km/h (2 Bft) O-SO 112 8,8 C 18,1 C 12,1 km/h (2 Bft)
24.04.2019 11:58 18,8 C 20,3 C 52 % 1015,2 hPa 0,0 l/m 9,2 km/h (2 Bft) W-SW 247 8,7 C 17,6 C 7,2 km/h (2 Bft)
24.04.2019 11:56 18,7 C 20,0 C 52 % 1015,2 hPa 0,0 l/m 9,2 km/h (2 Bft) S-SO 157 8,6 C 17,5 C 15,9 km/h (3 Bft)
24.04.2019 11:54 18,6 C 19,9 C 52 % 1015,2 hPa 0,0 l/m 8,7 km/h (2 Bft) SO 135 8,5 C 17,6 C 15,9 km/h (3 Bft)
24.04.2019 11:52 18,7 C 19,9 C 52 % 1015,2 hPa 0,0 l/m 9,2 km/h (2 Bft) SO 135 8,6 C 17,5 C 14,2 km/h (3 Bft)
24.04.2019 11:50 18,7 C 20,2 C 53 % 1015,2 hPa 0,0 l/m 10,6 km/h (2 Bft) SO 135 8,9 C 17,0 C 17,1 km/h (3 Bft)
24.04.2019 11:48 18,6 C 20,3 C 53 % 1015,2 hPa 0,0 l/m 11,8 km/h (2 Bft) SO 135 8,8 C 16,5 C 17,1 km/h (3 Bft)
24.04.2019 11:46 18,6 C 20,2 C 53 % 1015,2 hPa 0,0 l/m 12,6 km/h (3 Bft) O-SO 112 8,8 C 16,2 C 11,3 km/h (2 Bft)
24.04.2019 11:44 18,1 C 19,1 C 53 % 1015,2 hPa 0,0 l/m 14,2 km/h (3 Bft) SO 135 8,4 C 15,2 C 9,4 km/h (2 Bft)
24.04.2019 11:42 18,0 C 19,0 C 53 % 1015,2 hPa 0,0 l/m 14,2 km/h (3 Bft) SW 225 8,3 C 15,1 C 17,4 km/h (3 Bft)
24.04.2019 11:40 18,1 C 18,8 C 53 % 1015,4 hPa 0,0 l/m 14,0 km/h (3 Bft) SO 135 8,4 C 15,2 C 17,4 km/h (3 Bft)
24.04.2019 11:38 18,3 C 19,4 C 53 % 1015,4 hPa 0,0 l/m 14,0 km/h (3 Bft) SO 135 8,6 C 15,5 C 19,3 km/h (3 Bft)
24.04.2019 11:36 18,2 C 19,7 C 53 % 1015,4 hPa 0,0 l/m 12,8 km/h (3 Bft) SO 135 8,5 C 15,7 C 19,3 km/h (3 Bft)
24.04.2019 11:34 18,0 C 19,2 C 53 % 1015,4 hPa 0,0 l/m 12,1 km/h (2 Bft) O-SO 112 8,3 C 15,7 C 14,7 km/h (3 Bft)
24.04.2019 11:32 17,9 C 19,1 C 53 % 1015,4 hPa 0,0 l/m 13,8 km/h (3 Bft) S-SO 157 8,2 C 15,0 C 19,6 km/h (3 Bft)
24.04.2019 11:30 18,0 C 19,2 C 53 % 1015,4 hPa 0,0 l/m 15,7 km/h (3 Bft) SO 135 8,3 C 14,6 C 24,1 km/h (4 Bft)
24.04.2019 11:28 18,0 C 19,4 C 54 % 1015,4 hPa 0,0 l/m 15,7 km/h (3 Bft) S-SO 157 8,6 C 14,6 C 24,1 km/h (4 Bft)
24.04.2019 11:26 17,7 C 19,0 C 54 % 1015,4 hPa 0,0 l/m 17,1 km/h (3 Bft) SO 135 8,3 C 13,9 C 21,7 km/h (4 Bft)
24.04.2019 11:24 17,5 C 18,1 C 54 % 1015,4 hPa 0,0 l/m 17,9 km/h (3 Bft) S 180 8,1 C 13,5 C 21,7 km/h (4 Bft)
24.04.2019 11:22 17,6 C 18,4 C 54 % 1015,4 hPa 0,0 l/m 18,1 km/h (3 Bft) SO 135 8,2 C 13,5 C 15,7 km/h (3 Bft)
24.04.2019 11:20 17,6 C 18,6 C 54 % 1015,1 hPa 0,0 l/m 16,2 km/h (3 Bft) SW 225 8,2 C 14,0 C 25,3 km/h (4 Bft)
24.04.2019 11:18 17,5 C 18,3 C 54 % 1015,1 hPa 0,0 l/m 16,7 km/h (3 Bft) S-SO 157 8,1 C 13,8 C 25,3 km/h (4 Bft)
24.04.2019 11:16 17,7 C 18,7 C 54 % 1015,1 hPa 0,0 l/m 15,4 km/h (3 Bft) W-SW 247 8,3 C 14,4 C 19,3 km/h (3 Bft)
24.04.2019 11:14 17,6 C 18,5 C 54 % 1015,1 hPa 0,0 l/m 15,2 km/h (3 Bft) S-SO 157 8,2 C 14,3 C 15,4 km/h (3 Bft)
24.04.2019 11:12 17,6 C 18,8 C 54 % 1015,1 hPa 0,0 l/m 14,2 km/h (3 Bft) SO 135 8,2 C 14,6 C 15,4 km/h (3 Bft)
24.04.2019 11:10 17,4 C 18,3 C 54 % 1015,1 hPa 0,0 l/m 13,5 km/h (3 Bft) SW 225 8,0 C 14,5 C 25,8 km/h (4 Bft)
24.04.2019 11:08 17,5 C 18,7 C 54 % 1015,1 hPa 0,0 l/m 13,5 km/h (3 Bft) S 180 8,1 C 14,7 C 25,8 km/h (4 Bft)
24.04.2019 11:06 17,6 C 18,6 C 54 % 1015,1 hPa 0,0 l/m 13,3 km/h (3 Bft) S-SO 157 8,2 C 14,8 C 20,0 km/h (4 Bft)
24.04.2019 11:04 17,6 C 18,9 C 54 % 1015,1 hPa 0,0 l/m 12,6 km/h (3 Bft) SO 135 8,2 C 15,1 C 23,9 km/h (4 Bft)
24.04.2019 11:02 17,7 C 19,0 C 54 % 1015,1 hPa 0,0 l/m 11,8 km/h (2 Bft) S 180 8,3 C 15,4 C 23,9 km/h (4 Bft)
24.04.2019 11:00 17,7 C 19,0 C 54 % 1015,2 hPa 0,0 l/m 13,0 km/h (3 Bft) S 180 8,3 C 15,1 C 19,3 km/h (3 Bft)
24.04.2019 10:58 17,4 C 18,5 C 54 % 1015,2 hPa 0,0 l/m 13,5 km/h (3 Bft) S-SO 157 8,0 C 14,5 C 19,3 km/h (3 Bft)
24.04.2019 10:56 17,6 C 18,9 C 54 % 1015,2 hPa 0,0 l/m 13,0 km/h (3 Bft) S 180 8,2 C 14,9 C 20,3 km/h (4 Bft)
24.04.2019 10:54 17,3 C 18,8 C 54 % 1015,2 hPa 0,0 l/m 14,7 km/h (3 Bft) W 270 7,9 C 14,1 C 20,3 km/h (4 Bft)
24.04.2019 10:52 17,2 C 18,9 C 54 % 1015,2 hPa 0,0 l/m 14,5 km/h (3 Bft) S 180 7,8 C 14,0 C 19,6 km/h (3 Bft)
24.04.2019 10:50 17,1 C 18,6 C 54 % 1015,2 hPa 0,0 l/m 14,7 km/h (3 Bft) W-SW 247 7,7 C 13,8 C 19,6 km/h (3 Bft)
24.04.2019 10:48 17,4 C 19,4 C 54 % 1015,2 hPa 0,0 l/m 11,8 km/h (2 Bft) S 180 8,0 C 15,1 C 22,4 km/h (4 Bft)
24.04.2019 10:46 17,2 C 18,9 C 54 % 1015,2 hPa 0,0 l/m 11,3 km/h (2 Bft) S 180 7,8 C 15,1 C 22,4 km/h (4 Bft)
24.04.2019 10:44 17,1 C 19,3 C 54 % 1015,2 hPa 0,0 l/m 11,1 km/h (2 Bft) S 180 7,7 C 15,0 C 16,9 km/h (3 Bft)
24.04.2019 10:42 17,1 C 19,3 C 55 % 1015,2 hPa 0,0 l/m 10,4 km/h (2 Bft) SW 225 8,0 C 15,3 C 18,6 km/h (3 Bft)
24.04.2019 10:40 17,5 C 20,2 C 55 % 1014,8 hPa 0,0 l/m 11,3 km/h (2 Bft) S-SW 202 8,4 C 15,4 C 18,6 km/h (3 Bft)
24.04.2019 10:38 17,3 C 19,9 C 55 % 1014,8 hPa 0,0 l/m 14,2 km/h (3 Bft) NW 315 8,2 C 14,2 C 8,0 km/h (2 Bft)
24.04.2019 10:36 16,9 C 19,4 C 55 % 1014,8 hPa 0,0 l/m 15,4 km/h (3 Bft) S-SW 202 7,8 C 13,4 C 16,2 km/h (3 Bft)
24.04.2019 10:34 16,6 C 18,9 C 55 % 1014,8 hPa 0,0 l/m 15,2 km/h (3 Bft) S 180 7,5 C 13,1 C 21,7 km/h (4 Bft)
24.04.2019 10:32 16,5 C 18,1 C 55 % 1014,8 hPa 0,0 l/m 14,2 km/h (3 Bft) S-SO 157 7,4 C 13,3 C 31,6 km/h (5 Bft)
24.04.2019 10:30 16,5 C 18,5 C 55 % 1014,8 hPa 0,0 l/m 12,8 km/h (3 Bft) S-SO 157 7,4 C 13,7 C 35,7 km/h (5 Bft)
24.04.2019 10:28 16,9 C 19,3 C 55 % 1014,8 hPa 0,0 l/m 12,1 km/h (2 Bft) S 180 7,8 C 14,4 C 35,7 km/h (5 Bft)
24.04.2019 10:26 17,0 C 19,9 C 55 % 1014,8 hPa 0,0 l/m 13,5 km/h (3 Bft) SW 225 7,9 C 14,1 C 32,3 km/h (5 Bft)
24.04.2019 10:24 17,1 C 20,1 C 56 % 1014,8 hPa 0,0 l/m 14,7 km/h (3 Bft) SO 135 8,3 C 13,8 C 21,0 km/h (4 Bft)
24.04.2019 10:22 16,8 C 20,1 C 56 % 1014,8 hPa 0,0 l/m 15,2 km/h (3 Bft) S-SO 157 8,0 C 13,3 C 13,3 km/h (3 Bft)
24.04.2019 10:20 16,5 C 19,1 C 55 % 1014,6 hPa 0,0 l/m 15,7 km/h (3 Bft) SO 135 7,4 C 12,8 C 20,0 km/h (4 Bft)
24.04.2019 10:18 16,3 C 18,8 C 55 % 1014,6 hPa 0,0 l/m 16,7 km/h (3 Bft) N-NW 337 7,2 C 12,3 C 21,5 km/h (4 Bft)
24.04.2019 10:16 16,5 C 19,0 C 55 % 1014,6 hPa 0,0 l/m 17,6 km/h (3 Bft) SO 135 7,4 C 12,3 C 24,6 km/h (4 Bft)
24.04.2019 10:14 16,7 C 19,5 C 56 % 1014,6 hPa 0,0 l/m 19,3 km/h (3 Bft) S 180 7,9 C 12,1 C 24,6 km/h (4 Bft)
24.04.2019 10:12 16,6 C 20,1 C 56 % 1014,6 hPa 0,0 l/m 20,0 km/h (4 Bft) SW 225 7,8 C 11,8 C 17,1 km/h (3 Bft)
24.04.2019 10:10 16,2 C 19,0 C 55 % 1014,6 hPa 0,0 l/m 19,8 km/h (3 Bft) S-SO 157 7,2 C 11,3 C 17,1 km/h (3 Bft)
24.04.2019 10:08 16,3 C 18,7 C 55 % 1014,6 hPa 0,0 l/m 19,1 km/h (3 Bft) S-SO 157 7,2 C 11,6 C 33,8 km/h (5 Bft)
24.04.2019 10:06 16,3 C 18,9 C 56 % 1014,6 hPa 0,0 l/m 18,1 km/h (3 Bft) SO 135 7,5 C 11,9 C 53,6 km/h (7 Bft)
24.04.2019 10:04 16,4 C 19,7 C 56 % 1014,6 hPa 0,0 l/m 16,7 km/h (3 Bft) S 180 7,6 C 12,4 C 53,6 km/h (7 Bft)
24.04.2019 10:02 16,6 C 20,0 C 56 % 1014,6 hPa 0,0 l/m 13,8 km/h (3 Bft) S 180 7,8 C 13,5 C 35,5 km/h (5 Bft)
24.04.2019 10:00 16,5 C 19,8 C 56 % 1014,6 hPa 0,0 l/m 14,7 km/h (3 Bft) SW 225 7,7 C 13,1 C 22,7 km/h (4 Bft)
24.04.2019 09:58 16,4 C 19,2 C 56 % 1014,6 hPa 0,0 l/m 14,7 km/h (3 Bft) S 180 7,6 C 13,0 C 22,7 km/h (4 Bft)
24.04.2019 09:56 16,2 C 18,9 C 56 % 1014,6 hPa 0,0 l/m 13,5 km/h (3 Bft) NW 315 7,4 C 13,1 C 25,8 km/h (4 Bft)
24.04.2019 09:54 16,3 C 19,4 C 56 % 1014,6 hPa 0,0 l/m 13,3 km/h (3 Bft) S 180 7,5 C 13,3 C 25,8 km/h (4 Bft)
24.04.2019 09:52 16,3 C 19,1 C 57 % 1014,6 hPa 0,0 l/m 12,6 km/h (3 Bft) O-SO 112 7,8 C 13,6 C 27,3 km/h (4 Bft)
24.04.2019 09:50 16,3 C 19,6 C 57 % 1014,6 hPa 0,0 l/m 12,1 km/h (2 Bft) W-SW 247 7,8 C 13,7 C 27,3 km/h (4 Bft)
24.04.2019 09:48 16,3 C 19,6 C 57 % 1014,6 hPa 0,0 l/m 13,3 km/h (3 Bft) SW 225 7,8 C 13,3 C 16,2 km/h (3 Bft)
24.04.2019 09:46 16,2 C 19,4 C 57 % 1014,6 hPa 0,0 l/m 14,2 km/h (3 Bft) S 180 7,7 C 12,9 C 16,2 km/h (3 Bft)
24.04.2019 09:44 16,1 C 19,8 C 57 % 1014,6 hPa 0,0 l/m 15,9 km/h (3 Bft) O-SO 112 7,6 C 12,3 C 15,2 km/h (3 Bft)
24.04.2019 09:42 15,8 C 19,3 C 59 % 1014,6 hPa 0,0 l/m 17,6 km/h (3 Bft) SO 135 7,8 C 11,4 C 21,2 km/h (4 Bft)
24.04.2019 09:40 15,8 C 18,4 C 59 % 1014,1 hPa 0,0 l/m 17,4 km/h (3 Bft) SO 135 7,8 C 11,5 C 23,2 km/h (4 Bft)
24.04.2019 09:38 15,7 C 18,9 C 59 % 1014,1 hPa 0,0 l/m 16,4 km/h (3 Bft) S 180 7,7 C 11,6 C 23,2 km/h (4 Bft)
24.04.2019 09:36 15,8 C 19,1 C 59 % 1014,1 hPa 0,0 l/m 15,4 km/h (3 Bft) O-SO 112 7,8 C 12,0 C 50,7 km/h (7 Bft)
24.04.2019 09:34 15,9 C 19,1 C 59 % 1014,1 hPa 0,0 l/m 15,9 km/h (3 Bft) S 180 7,9 C 12,0 C 50,7 km/h (7 Bft)
24.04.2019 09:32 15,9 C 19,2 C 59 % 1014,1 hPa 0,0 l/m 14,7 km/h (3 Bft) S 180 7,9 C 12,4 C 24,9 km/h (4 Bft)
24.04.2019 09:30 15,9 C 19,0 C 60 % 1014,1 hPa 0,0 l/m 16,4 km/h (3 Bft) SO 135 8,1 C 11,9 C 16,7 km/h (3 Bft)
24.04.2019 09:28 15,6 C 18,8 C 60 % 1014,1 hPa 0,0 l/m 17,9 km/h (3 Bft) S-SO 157 7,9 C 11,1 C 11,1 km/h (2 Bft)
24.04.2019 09:26 15,4 C 18,8 C 60 % 1014,1 hPa 0,0 l/m 18,3 km/h (3 Bft) SO 135 7,7 C 10,7 C 31,9 km/h (5 Bft)
24.04.2019 09:24 15,3 C 18,2 C 60 % 1014,1 hPa 0,0 l/m 18,6 km/h (3 Bft) O-SO 112 7,6 C 10,5 C 31,9 km/h (5 Bft)
24.04.2019 09:22 15,5 C 18,8 C 60 % 1014,1 hPa 0,0 l/m 17,9 km/h (3 Bft) SW 225 7,8 C 10,9 C 20,0 km/h (4 Bft)
24.04.2019 09:20 15,2 C 17,6 C 60 % 1014,3 hPa 0,0 l/m 15,7 km/h (3 Bft) SW 225 7,5 C 11,2 C 39,8 km/h (6 Bft)
24.04.2019 09:18 15,3 C 18,0 C 60 % 1014,3 hPa 0,0 l/m 12,6 km/h (3 Bft) W-SW 247 7,6 C 12,4 C 39,8 km/h (6 Bft)
24.04.2019 09:16 15,3 C 18,2 C 60 % 1014,3 hPa 0,0 l/m 11,6 km/h (2 Bft) SW 225 7,6 C 12,8 C 18,1 km/h (3 Bft)
24.04.2019 09:14 15,6 C 19,1 C 60 % 1014,3 hPa 0,0 l/m 12,1 km/h (2 Bft) S-SO 157 7,9 C 12,9 C 17,9 km/h (3 Bft)
24.04.2019 09:12 15,5 C 19,4 C 60 % 1014,3 hPa 0,0 l/m 10,9 km/h (2 Bft) S-SO 157 7,8 C 13,3 C 17,9 km/h (3 Bft)
24.04.2019 09:10 15,3 C 18,9 C 60 % 1014,3 hPa 0,0 l/m 11,1 km/h (2 Bft) S-SO 157 7,6 C 13,0 C 15,9 km/h (3 Bft)
24.04.2019 09:08 15,1 C 18,8 C 60 % 1014,3 hPa 0,0 l/m 12,8 km/h (3 Bft) S-SO 157 7,4 C 12,1 C 16,4 km/h (3 Bft)
24.04.2019 09:06 15,2 C 18,4 C 60 % 1014,3 hPa 0,0 l/m 12,6 km/h (3 Bft) S 180 7,5 C 12,3 C 21,5 km/h (4 Bft)
24.04.2019 09:04 15,1 C 18,5 C 61 % 1014,3 hPa 0,0 l/m 12,8 km/h (3 Bft) SO 135 7,6 C 12,1 C 21,5 km/h (4 Bft)
24.04.2019 09:02 15,0 C 18,3 C 61 % 1014,3 hPa 0,0 l/m 14,2 km/h (3 Bft) O-SO 112 7,5 C 11,5 C 24,6 km/h (4 Bft)
24.04.2019 09:00 14,8 C 17,3 C 61 % 1013,9 hPa 0,0 l/m 14,5 km/h (3 Bft) SO 135 7,4 C 11,1 C 24,6 km/h (4 Bft)
24.04.2019 08:58 14,9 C 18,5 C 61 % 1013,9 hPa 0,0 l/m 13,5 km/h (3 Bft) S 180 7,4 C 11,6 C 13,8 km/h (3 Bft)
24.04.2019 08:56 14,7 C 18,1 C 61 % 1013,9 hPa 0,0 l/m 15,0 km/h (3 Bft) S-SO 157 7,3 C 10,8 C 22,2 km/h (4 Bft)
24.04.2019 08:54 14,4 C 17,1 C 61 % 1013,9 hPa 0,0 l/m 16,2 km/h (3 Bft) S-SO 157 7,0 C 10,1 C 38,6 km/h (5 Bft)
24.04.2019 08:52 14,3 C 16,8 C 61 % 1013,9 hPa 0,0 l/m 15,4 km/h (3 Bft) S 180 6,9 C 10,2 C 38,6 km/h (5 Bft)
24.04.2019 08:50 14,3 C 17,2 C 62 % 1013,9 hPa 0,0 l/m 14,7 km/h (3 Bft) W-NW 292 7,1 C 10,4 C 19,6 km/h (3 Bft)
24.04.2019 08:48 14,1 C 17,2 C 61 % 1013,9 hPa 0,0 l/m 17,6 km/h (3 Bft) W-SW 247 6,7 C 9,3 C 24,9 km/h (4 Bft)
24.04.2019 08:46 14,0 C 16,8 C 62 % 1013,9 hPa 0,0 l/m 17,4 km/h (3 Bft) W-SW 247 6,8 C 9,2 C 24,9 km/h (4 Bft)
24.04.2019 08:44 14,0 C 16,9 C 62 % 1013,9 hPa 0,0 l/m 19,1 km/h (3 Bft) SW 225 6,8 C 8,7 C 29,2 km/h (5 Bft)
24.04.2019 08:42 13,9 C 16,8 C 62 % 1013,9 hPa 0,0 l/m 18,6 km/h (3 Bft) W-SW 247 6,7 C 8,7 C 29,2 km/h (5 Bft)
24.04.2019 08:40 13,8 C 16,4 C 62 % 1013,8 hPa 0,0 l/m 19,3 km/h (3 Bft) S-SO 157 6,6 C 8,4 C 41,3 km/h (6 Bft)
24.04.2019 08:38 13,6 C 16,0 C 62 % 1013,8 hPa 0,0 l/m 19,1 km/h (3 Bft) S 180 6,5 C 8,2 C 41,3 km/h (6 Bft)
24.04.2019 08:36 13,5 C 14,7 C 62 % 1013,8 hPa 0,0 l/m 19,3 km/h (3 Bft) SO 135 6,4 C 8,0 C 45,4 km/h (6 Bft)
24.04.2019 08:34 13,5 C 14,0 C 62 % 1013,8 hPa 0,0 l/m 21,5 km/h (4 Bft) W-SW 247 6,4 C 7,4 C 45,4 km/h (6 Bft)
24.04.2019 08:32 13,8 C 16,5 C 62 % 1013,8 hPa 0,0 l/m 20,0 km/h (4 Bft) S 180 6,6 C 8,2 C 26,3 km/h (4 Bft)
24.04.2019 08:30 13,5 C 16,3 C 62 % 1013,8 hPa 0,0 l/m 19,8 km/h (3 Bft) S-SO 157 6,4 C 7,9 C 34,0 km/h (5 Bft)
24.04.2019 08:28 13,5 C 15,2 C 62 % 1013,8 hPa 0,0 l/m 20,3 km/h (4 Bft) S 180 6,4 C 7,7 C 34,0 km/h (5 Bft)
24.04.2019 08:26 13,5 C 15,3 C 62 % 1013,8 hPa 0,0 l/m 19,3 km/h (3 Bft) W-SW 247 6,4 C 8,0 C 50,7 km/h (7 Bft)
24.04.2019 08:24 13,5 C 14,8 C 62 % 1013,8 hPa 0,0 l/m 19,3 km/h (3 Bft) S-SO 157 6,4 C 8,0 C 50,7 km/h (7 Bft)
24.04.2019 08:22 13,6 C 15,2 C 62 % 1013,8 hPa 0,0 l/m 19,6 km/h (3 Bft) NO 45 6,5 C 8,0 C 29,0 km/h (5 Bft)
24.04.2019 08:20 13,6 C 15,6 C 62 % 1013,6 hPa 0,0 l/m 19,6 km/h (3 Bft) S 180 6,5 C 8,0 C 22,0 km/h (4 Bft)
24.04.2019 08:18 13,6 C 16,0 C 62 % 1013,6 hPa 0,0 l/m 19,3 km/h (3 Bft) SW 225 6,5 C 8,1 C 22,0 km/h (4 Bft)
24.04.2019 08:16 13,5 C 15,8 C 62 % 1013,6 hPa 0,0 l/m 19,6 km/h (3 Bft) S-SO 157 6,4 C 7,9 C 17,9 km/h (3 Bft)
24.04.2019 08:14 13,3 C 15,4 C 62 % 1013,6 hPa 0,0 l/m 20,0 km/h (4 Bft) S 180 6,2 C 7,6 C 45,1 km/h (6 Bft)
24.04.2019 08:12 13,4 C 15,2 C 63 % 1013,6 hPa 0,0 l/m 21,7 km/h (4 Bft) S-SO 157 6,5 C 7,2 C 45,1 km/h (6 Bft)
24.04.2019 08:10 13,3 C 15,1 C 63 % 1013,6 hPa 0,0 l/m 23,7 km/h (4 Bft) S-SO 157 6,4 C 6,6 C 21,5 km/h (4 Bft)
24.04.2019 08:08 13,3 C 15,3 C 63 % 1013,6 hPa 0,0 l/m 26,8 km/h (4 Bft) SO 135 6,4 C 5,9 C 16,2 km/h (3 Bft)
24.04.2019 08:06 13,1 C 15,2 C 63 % 1013,6 hPa 0,0 l/m 28,5 km/h (4 Bft) S-SO 157 6,2 C 5,3 C 22,4 km/h (4 Bft)
24.04.2019 08:04 13,0 C 14,9 C 63 % 1013,6 hPa 0,0 l/m 29,5 km/h (5 Bft) S 180 6,1 C 5,0 C 35,5 km/h (5 Bft)
24.04.2019 08:02 12,7 C 14,4 C 63 % 1013,6 hPa 0,0 l/m 29,9 km/h (5 Bft) S 180 5,8 C 4,5 C 56,7 km/h (7 Bft)
24.04.2019 08:00 12,7 C 14,3 C 63 % 1013,1 hPa 0,0 l/m 29,2 km/h (5 Bft) W-SW 247 5,8 C 4,6 C 56,7 km/h (7 Bft)
24.04.2019 07:58 12,7 C 13,3 C 63 % 1013,1 hPa 0,0 l/m 28,0 km/h (4 Bft) S-SO 157 5,8 C 4,8 C 39,8 km/h (6 Bft)
24.04.2019 07:56 12,7 C 12,9 C 63 % 1013,1 hPa 0,0 l/m 28,2 km/h (4 Bft) S-SO 157 5,8 C 4,8 C 39,8 km/h (6 Bft)
24.04.2019 07:54 12,7 C 14,1 C 63 % 1013,1 hPa 0,0 l/m 29,2 km/h (5 Bft) SW 225 5,8 C 4,6 C 39,1 km/h (6 Bft)
24.04.2019 07:52 12,7 C 14,5 C 63 % 1013,1 hPa 0,0 l/m 29,7 km/h (5 Bft) SO 135 5,8 C 4,5 C 43,7 km/h (6 Bft)
24.04.2019 07:50 12,6 C 14,2 C 63 % 1013,1 hPa 0,0 l/m 31,4 km/h (5 Bft) W-SW 247 5,7 C 4,1 C 49,2 km/h (6 Bft)
24.04.2019 07:48 12,5 C 14,2 C 63 % 1013,1 hPa 0,0 l/m 31,9 km/h (5 Bft) S 180 5,7 C 3,8 C 49,2 km/h (6 Bft)
24.04.2019 07:46 12,6 C 14,1 C 64 % 1013,1 hPa 0,0 l/m 31,9 km/h (5 Bft) S-SW 202 6,0 C 4,0 C 65,7 km/h (8 Bft)
24.04.2019 07:44 12,6 C 13,9 C 64 % 1013,1 hPa 0,0 l/m 30,9 km/h (5 Bft) S 180 6,0 C 4,1 C 65,7 km/h (8 Bft)
24.04.2019 07:42 12,5 C 13,9 C 65 % 1013,1 hPa 0,0 l/m 31,1 km/h (5 Bft) SW 225 6,1 C 4,0 C 50,7 km/h (7 Bft)
24.04.2019 07:40 12,4 C 13,7 C 65 % 1013,4 hPa 0,0 l/m 31,6 km/h (5 Bft) S-SO 157 6,0 C 3,7 C 50,9 km/h (7 Bft)
24.04.2019 07:38 12,4 C 13,5 C 65 % 1013,4 hPa 0,0 l/m 31,6 km/h (5 Bft) S 180 6,0 C 3,7 C 64,7 km/h (8 Bft)
24.04.2019 07:36 12,4 C 13,3 C 65 % 1013,4 hPa 0,0 l/m 31,6 km/h (5 Bft) S 180 6,0 C 3,7 C 64,7 km/h (8 Bft)
24.04.2019 07:34 12,2 C 13,2 C 65 % 1013,4 hPa 0,0 l/m 30,7 km/h (5 Bft) S 180 5,8 C 3,6 C 47,8 km/h (6 Bft)
24.04.2019 07:32 12,2 C 12,7 C 65 % 1013,4 hPa 0,0 l/m 30,2 km/h (5 Bft) SO 135 5,8 C 3,7 C 45,4 km/h (6 Bft)
24.04.2019 07:30 12,2 C 12,5 C 65 % 1013,4 hPa 0,0 l/m 27,5 km/h (4 Bft) SO 135 5,8 C 4,3 C 32,1 km/h (5 Bft)
24.04.2019 07:28 12,2 C 12,4 C 65 % 1013,4 hPa 0,0 l/m 28,7 km/h (4 Bft) S-SW 202 5,8 C 4,0 C 32,1 km/h (5 Bft)
24.04.2019 07:26 12,1 C 12,2 C 65 % 1013,4 hPa 0,0 l/m 29,0 km/h (5 Bft) S-SO 157 5,7 C 3,8 C 38,6 km/h (5 Bft)
24.04.2019 07:24 12,2 C 11,9 C 66 % 1013,4 hPa 0,0 l/m 28,7 km/h (4 Bft) S-SO 157 6,0 C 4,0 C 39,6 km/h (6 Bft)
24.04.2019 07:22 12,2 C 12,4 C 66 % 1013,4 hPa 0,0 l/m 29,7 km/h (5 Bft) NW 315 6,0 C 3,8 C 43,7 km/h (6 Bft)
24.04.2019 07:20 12,1 C 12,0 C 66 % 1013,1 hPa 0,0 l/m 30,9 km/h (5 Bft) S 180 5,9 C 3,4 C 45,9 km/h (6 Bft)
24.04.2019 07:18 12,1 C 12,2 C 66 % 1013,1 hPa 0,0 l/m 28,7 km/h (4 Bft) S 180 5,9 C 3,9 C 52,9 km/h (7 Bft)
24.04.2019 07:16 11,9 C 11,7 C 66 % 1013,1 hPa 0,0 l/m 29,2 km/h (5 Bft) W-SW 247 5,8 C 3,5 C 52,9 km/h (7 Bft)
24.04.2019 07:14 11,9 C 11,7 C 66 % 1013,1 hPa 0,0 l/m 29,7 km/h (5 Bft) S-SW 202 5,8 C 3,4 C 44,4 km/h (6 Bft)
24.04.2019 07:12 12,1 C 12,1 C 66 % 1013,1 hPa 0,0 l/m 28,2 km/h (4 Bft) S 180 5,9 C 4,0 C 44,4 km/h (6 Bft)
24.04.2019 07:10 12,1 C 12,4 C 66 % 1013,1 hPa 0,0 l/m 26,6 km/h (4 Bft) S 180 5,9 C 4,3 C 32,8 km/h (5 Bft)
24.04.2019 07:08 11,9 C 12,2 C 67 % 1013,1 hPa 0,0 l/m 25,8 km/h (4 Bft) S-SO 157 6,0 C 4,2 C 41,8 km/h (6 Bft)
24.04.2019 07:06 11,8 C 11,8 C 67 % 1013,1 hPa 0,0 l/m 24,9 km/h (4 Bft) S-SO 157 5,9 C 4,3 C 41,8 km/h (6 Bft)
24.04.2019 07:04 11,7 C 11,7 C 67 % 1013,1 hPa 0,0 l/m 25,3 km/h (4 Bft) S 180 5,8 C 4,1 C 39,8 km/h (6 Bft)
24.04.2019 07:02 11,7 C 11,3 C 67 % 1013,1 hPa 0,0 l/m 25,8 km/h (4 Bft) S 180 5,8 C 3,9 C 39,8 km/h (6 Bft)
24.04.2019 07:00 11,6 C 11,2 C 67 % 1012,6 hPa 0,0 l/m 25,8 km/h (4 Bft) S 180 5,7 C 3,8 C 38,6 km/h (5 Bft)
24.04.2019 06:58 11,6 C 11,3 C 67 % 1012,6 hPa 0,0 l/m 25,8 km/h (4 Bft) S-SO 157 5,7 C 3,8 C 38,6 km/h (5 Bft)
24.04.2019 06:56 11,7 C 11,4 C 67 % 1012,6 hPa 0,0 l/m 24,4 km/h (4 Bft) S-SO 157 5,8 C 4,3 C 45,1 km/h (6 Bft)
24.04.2019 06:54 11,6 C 11,4 C 67 % 1012,6 hPa 0,0 l/m 24,4 km/h (4 Bft) S-SO 157 5,7 C 4,1 C 45,1 km/h (6 Bft)
24.04.2019 06:52 11,6 C 11,1 C 67 % 1012,6 hPa 0,0 l/m 22,9 km/h (4 Bft) S 180 5,7 C 4,5 C 30,7 km/h (5 Bft)
24.04.2019 06:50 11,5 C 11,0 C 67 % 1012,6 hPa 0,0 l/m 25,3 km/h (4 Bft) S 180 5,6 C 3,8 C 37,9 km/h (5 Bft)
24.04.2019 06:48 11,6 C 11,0 C 67 % 1012,6 hPa 0,0 l/m 25,6 km/h (4 Bft) S-SO 157 5,7 C 3,9 C 37,9 km/h (5 Bft)
24.04.2019 06:46 11,6 C 11,0 C 67 % 1012,6 hPa 0,0 l/m 27,3 km/h (4 Bft) S 180 5,7 C 3,5 C 40,1 km/h (6 Bft)
24.04.2019 06:44 11,5 C 10,9 C 67 % 1012,6 hPa 0,0 l/m 28,0 km/h (4 Bft) S 180 5,6 C 3,2 C 47,6 km/h (6 Bft)
24.04.2019 06:42 11,5 C 10,9 C 67 % 1012,6 hPa 0,0 l/m 29,0 km/h (5 Bft) S 180 5,6 C 3,0 C 47,6 km/h (6 Bft)
24.04.2019 06:40 11,4 C 10,8 C 67 % 1012,9 hPa 0,0 l/m 26,3 km/h (4 Bft) S-SW 202 5,5 C 3,4 C 37,4 km/h (5 Bft)
24.04.2019 06:38 11,4 C 10,8 C 67 % 1012,9 hPa 0,0 l/m 25,3 km/h (4 Bft) S 180 5,5 C 3,7 C 37,4 km/h (5 Bft)
24.04.2019 06:36 11,3 C 10,8 C 67 % 1012,9 hPa 0,0 l/m 26,3 km/h (4 Bft) W-SW 247 5,4 C 3,3 C 36,9 km/h (5 Bft)
24.04.2019 06:34 11,3 C 10,9 C 68 % 1012,9 hPa 0,0 l/m 25,8 km/h (4 Bft) S-SO 157 5,6 C 3,4 C 45,4 km/h (6 Bft)
24.04.2019 06:32 11,3 C 10,7 C 68 % 1012,9 hPa 0,0 l/m 24,1 km/h (4 Bft) SW 225 5,6 C 3,8 C 45,4 km/h (6 Bft)
24.04.2019 06:30 11,2 C 10,6 C 68 % 1012,9 hPa 0,0 l/m 21,0 km/h (4 Bft) SO 135 5,5 C 4,5 C 21,0 km/h (4 Bft)
24.04.2019 06:28 11,2 C 10,6 C 68 % 1012,9 hPa 0,0 l/m 20,3 km/h (4 Bft) S 180 5,5 C 4,7 C 21,5 km/h (4 Bft)
24.04.2019 06:26 11,2 C 10,6 C 68 % 1012,9 hPa 0,0 l/m 17,6 km/h (3 Bft) O-SO 112 5,5 C 5,6 C 31,6 km/h (5 Bft)
24.04.2019 06:24 11,2 C 10,5 C 68 % 1012,9 hPa 0,0 l/m 15,9 km/h (3 Bft) SO 135 5,5 C 6,2 C 31,6 km/h (5 Bft)
24.04.2019 06:22 11,1 C 10,4 C 68 % 1012,9 hPa 0,0 l/m 14,5 km/h (3 Bft) SO 135 5,4 C 6,7 C 12,8 km/h (3 Bft)
24.04.2019 06:20 11,1 C 10,4 C 68 % 1012,6 hPa 0,0 l/m 15,0 km/h (3 Bft) S 180 5,4 C 6,5 C 17,6 km/h (3 Bft)
24.04.2019 06:18 11,1 C 10,3 C 68 % 1012,6 hPa 0,0 l/m 16,7 km/h (3 Bft) S 180 5,4 C 5,8 C 17,6 km/h (3 Bft)
24.04.2019 06:16 11,1 C 10,2 C 68 % 1012,6 hPa 0,0 l/m 17,4 km/h (3 Bft) S-SO 157 5,4 C 5,6 C 38,4 km/h (5 Bft)
24.04.2019 06:14 11,1 C 10,2 C 68 % 1012,6 hPa 0,0 l/m 20,3 km/h (4 Bft) S-SW 202 5,4 C 4,6 C 38,4 km/h (5 Bft)
24.04.2019 06:12 11,1 C 10,3 C 68 % 1012,6 hPa 0,0 l/m 22,0 km/h (4 Bft) O-SO 112 5,4 C 4,1 C 28,0 km/h (4 Bft)
24.04.2019 06:10 11,1 C 10,3 C 68 % 1012,6 hPa 0,0 l/m 25,3 km/h (4 Bft) S-SO 157 5,4 C 3,2 C 33,1 km/h (5 Bft)
24.04.2019 06:08 11,1 C 10,2 C 68 % 1012,6 hPa 0,0 l/m 26,6 km/h (4 Bft) S-SO 157 5,4 C 2,9 C 33,1 km/h (5 Bft)
24.04.2019 06:06 11,1 C 10,4 C 68 % 1012,6 hPa 0,0 l/m 28,5 km/h (4 Bft) S-SW 202 5,4 C 2,5 C 37,9 km/h (5 Bft)
24.04.2019 06:04 11,1 C 10,4 C 68 % 1012,6 hPa 0,0 l/m 28,2 km/h (4 Bft) W-SW 247 5,4 C 2,6 C 37,9 km/h (5 Bft)
24.04.2019 06:02 11,1 C 10,3 C 68 % 1012,6 hPa 0,0 l/m 27,5 km/h (4 Bft) S-SW 202 5,4 C 2,7 C 51,4 km/h (7 Bft)
24.04.2019 06:00 11,1 C 10,3 C 68 % 1012,9 hPa 0,0 l/m 25,8 km/h (4 Bft) S-SW 202 5,4 C 3,1 C 51,4 km/h (7 Bft)
24.04.2019 05:58 11,0 C 10,3 C 68 % 1012,9 hPa 0,0 l/m 23,4 km/h (4 Bft) S-SW 202 5,3 C 3,6 C 34,0 km/h (5 Bft)
24.04.2019 05:56 11,0 C 10,2 C 68 % 1012,9 hPa 0,0 l/m 23,2 km/h (4 Bft) S 180 5,3 C 3,7 C 34,0 km/h (5 Bft)
24.04.2019 05:54 11,0 C 10,1 C 68 % 1012,9 hPa 0,0 l/m 23,4 km/h (4 Bft) S-SW 202 5,3 C 3,6 C 34,0 km/h (5 Bft)
24.04.2019 05:52 11,0 C 9,9 C 68 % 1012,9 hPa 0,0 l/m 22,7 km/h (4 Bft) S 180 5,3 C 3,8 C 21,5 km/h (4 Bft)
24.04.2019 05:50 11,0 C 9,9 C 68 % 1012,9 hPa 0,0 l/m 23,7 km/h (4 Bft) O 90 5,3 C 3,5 C 33,8 km/h (5 Bft)
24.04.2019 05:48 11,0 C 10,0 C 68 % 1012,9 hPa 0,0 l/m 26,3 km/h (4 Bft) S-SO 157 5,3 C 2,9 C 33,8 km/h (5 Bft)
24.04.2019 05:46 11,0 C 10,1 C 68 % 1012,9 hPa 0,0 l/m 27,3 km/h (4 Bft) W-SW 247 5,3 C 2,6 C 29,0 km/h (5 Bft)
24.04.2019 05:44 11,0 C 10,2 C 68 % 1012,9 hPa 0,0 l/m 27,3 km/h (4 Bft) SW 225 5,3 C 2,6 C 27,8 km/h (4 Bft)
24.04.2019 05:42 11,0 C 10,2 C 68 % 1012,9 hPa 0,0 l/m 28,2 km/h (4 Bft) S-SO 157 5,3 C 2,4 C 27,8 km/h (4 Bft)
24.04.2019 05:40 11,1 C 10,3 C 68 % 1012,5 hPa 0,0 l/m 29,5 km/h (5 Bft) SO 135 5,4 C 2,3 C 36,0 km/h (5 Bft)
24.04.2019 05:38 11,1 C 10,4 C 68 % 1012,5 hPa 0,0 l/m 29,7 km/h (5 Bft) S-SW 202 5,4 C 2,3 C 36,0 km/h (5 Bft)
24.04.2019 05:36 11,1 C 10,4 C 68 % 1012,5 hPa 0,0 l/m 29,7 km/h (5 Bft) S-SO 157 5,4 C 2,3 C 40,6 km/h (6 Bft)
24.04.2019 05:34 11,0 C 10,3 C 68 % 1012,5 hPa 0,0 l/m 29,5 km/h (5 Bft) W-SW 247 5,3 C 2,2 C 53,3 km/h (7 Bft)
24.04.2019 05:32 11,1 C 10,3 C 68 % 1012,5 hPa 0,0 l/m 28,5 km/h (4 Bft) N-NW 337 5,4 C 2,5 C 53,3 km/h (7 Bft)
24.04.2019 05:30 11,1 C 10,5 C 68 % 1012,5 hPa 0,0 l/m 29,0 km/h (5 Bft) S-SO 157 5,4 C 2,4 C 42,5 km/h (6 Bft)
24.04.2019 05:28 11,0 C 10,3 C 68 % 1012,5 hPa 0,0 l/m 28,0 km/h (4 Bft) SW 225 5,3 C 2,5 C 42,5 km/h (6 Bft)
24.04.2019 05:26 11,0 C 10,3 C 68 % 1012,5 hPa 0,0 l/m 28,2 km/h (4 Bft) SO 135 5,3 C 2,4 C 36,2 km/h (5 Bft)
24.04.2019 05:24 11,0 C 10,2 C 68 % 1012,5 hPa 0,0 l/m 28,2 km/h (4 Bft) SW 225 5,3 C 2,4 C 38,4 km/h (5 Bft)
24.04.2019 05:22 11,0 C 10,3 C 68 % 1012,5 hPa 0,0 l/m 28,5 km/h (4 Bft) SW 225 5,3 C 2,4 C 52,6 km/h (7 Bft)
24.04.2019 05:20 11,0 C 10,3 C 68 % 1012,7 hPa 0,0 l/m 27,8 km/h (4 Bft) S 180 5,3 C 2,5 C 52,6 km/h (7 Bft)
24.04.2019 05:18 11,0 C 10,2 C 68 % 1012,7 hPa 0,0 l/m 25,6 km/h (4 Bft) W-SW 247 5,3 C 3,0 C 45,4 km/h (6 Bft)
24.04.2019 05:16 11,0 C 10,2 C 68 % 1012,7 hPa 0,0 l/m 25,3 km/h (4 Bft) S-SO 157 5,3 C 3,1 C 45,4 km/h (6 Bft)
24.04.2019 05:14 11,0 C 10,2 C 68 % 1012,7 hPa 0,0 l/m 24,1 km/h (4 Bft) S 180 5,3 C 3,4 C 38,4 km/h (5 Bft)
24.04.2019 05:12 11,0 C 10,2 C 69 % 1012,7 hPa 0,0 l/m 22,7 km/h (4 Bft) S 180 5,5 C 3,8 C 39,6 km/h (6 Bft)
24.04.2019 05:10 10,9 C 10,1 C 69 % 1012,7 hPa 0,0 l/m 22,0 km/h (4 Bft) O-SO 112 5,4 C 3,9 C 39,6 km/h (6 Bft)
24.04.2019 05:08 10,9 C 10,0 C 69 % 1012,7 hPa 0,0 l/m 20,5 km/h (4 Bft) S 180 5,4 C 4,3 C 27,3 km/h (4 Bft)
24.04.2019 05:06 10,9 C 10,1 C 69 % 1012,7 hPa 0,0 l/m 21,7 km/h (4 Bft) S 180 5,4 C 3,9 C 71,9 km/h (8 Bft)
24.04.2019 05:04 10,8 C 10,1 C 69 % 1012,7 hPa 0,0 l/m 22,2 km/h (4 Bft) S 180 5,3 C 3,7 C 29,0 km/h (5 Bft)
24.04.2019 05:02 10,8 C 10,0 C 69 % 1012,7 hPa 0,0 l/m 22,9 km/h (4 Bft) S-SW 202 5,3 C 3,5 C 26,3 km/h (4 Bft)
24.04.2019 05:00 10,7 C 9,9 C 69 % 1012,4 hPa 0,0 l/m 23,7 km/h (4 Bft) SO 135 5,2 C 3,1 C 21,7 km/h (4 Bft)
24.04.2019 04:58 10,8 C 10,0 C 69 % 1012,4 hPa 0,0 l/m 25,3 km/h (4 Bft) S-SO 157 5,3 C 2,8 C 71,9 km/h (8 Bft)
24.04.2019 04:56 10,7 C 9,9 C 69 % 1012,4 hPa 0,0 l/m 26,1 km/h (4 Bft) SW 225 5,2 C 2,5 C 71,9 km/h (8 Bft)
24.04.2019 04:54 10,7 C 9,9 C 69 % 1012,4 hPa 0,0 l/m 26,6 km/h (4 Bft) SW 225 5,2 C 2,4 C 37,9 km/h (5 Bft)
24.04.2019 04:52 10,7 C 9,9 C 69 % 1012,4 hPa 0,0 l/m 26,8 km/h (4 Bft) SW 225 5,2 C 2,3 C 41,8 km/h (6 Bft)
24.04.2019 04:50 10,7 C 9,8 C 69 % 1012,4 hPa 0,0 l/m 25,6 km/h (4 Bft) SO 135 5,2 C 2,6 C 59,6 km/h (7 Bft)
24.04.2019 04:48 10,7 C 9,8 C 69 % 1012,4 hPa 0,0 l/m 26,6 km/h (4 Bft) O 90 5,2 C 2,4 C 59,6 km/h (7 Bft)
24.04.2019 04:46 10,7 C 9,8 C 69 % 1012,4 hPa 0,0 l/m 26,6 km/h (4 Bft) S 180 5,2 C 2,4 C 43,9 km/h (6 Bft)
24.04.2019 04:44 10,7 C 9,6 C 69 % 1012,4 hPa 0,0 l/m 25,3 km/h (4 Bft) SW 225 5,2 C 2,7 C 43,9 km/h (6 Bft)
24.04.2019 04:42 10,7 C 9,5 C 69 % 1012,4 hPa 0,0 l/m 24,1 km/h (4 Bft) S-SO 157 5,2 C 3,0 C 40,3 km/h (6 Bft)
24.04.2019 04:40 10,7 C 9,6 C 69 % 1012,7 hPa 0,0 l/m 22,9 km/h (4 Bft) SW 225 5,2 C 3,3 C 50,0 km/h (6 Bft)
24.04.2019 04:38 10,7 C 9,7 C 69 % 1012,7 hPa 0,0 l/m 23,4 km/h (4 Bft) S 180 5,2 C 3,2 C 50,0 km/h (6 Bft)
24.04.2019 04:36 10,7 C 9,7 C 69 % 1012,7 hPa 0,0 l/m 23,2 km/h (4 Bft) S 180 5,2 C 3,3 C 41,8 km/h (6 Bft)
24.04.2019 04:34 10,7 C 9,5 C 69 % 1012,7 hPa 0,0 l/m 22,9 km/h (4 Bft) S-SO 157 5,2 C 3,3 C 15,9 km/h (3 Bft)
24.04.2019 04:32 10,7 C 9,5 C 69 % 1012,7 hPa 0,0 l/m 24,1 km/h (4 Bft) W-SW 247 5,2 C 3,0 C 42,2 km/h (6 Bft)
24.04.2019 04:30 10,7 C 9,6 C 69 % 1012,7 hPa 0,0 l/m 26,6 km/h (4 Bft) W-SW 247 5,2 C 2,4 C 42,2 km/h (6 Bft)
24.04.2019 04:28 10,7 C 9,7 C 70 % 1012,7 hPa 0,0 l/m 28,2 km/h (4 Bft) S 180 5,5 C 2,0 C 57,0 km/h (7 Bft)
24.04.2019 04:26 10,6 C 9,4 C 69 % 1012,7 hPa 0,0 l/m 26,8 km/h (4 Bft) S-SW 202 5,2 C 2,2 C 57,0 km/h (7 Bft)
24.04.2019 04:24 10,6 C 9,4 C 69 % 1012,7 hPa 0,0 l/m 25,8 km/h (4 Bft) SO 135 5,2 C 2,4 C 37,4 km/h (5 Bft)
24.04.2019 04:22 10,6 C 9,6 C 70 % 1012,7 hPa 0,0 l/m 25,8 km/h (4 Bft) W-SW 247 5,4 C 2,4 C 53,6 km/h (7 Bft)
24.04.2019 04:20 10,6 C 9,5 C 70 % 1012,9 hPa 0,0 l/m 24,9 km/h (4 Bft) S 180 5,4 C 2,7 C 53,6 km/h (7 Bft)
24.04.2019 04:18 10,6 C 9,4 C 70 % 1012,9 hPa 0,0 l/m 22,7 km/h (4 Bft) S-SW 202 5,4 C 3,3 C 29,0 km/h (5 Bft)
24.04.2019 04:16 10,6 C 9,5 C 70 % 1012,9 hPa 0,0 l/m 22,9 km/h (4 Bft) S 180 5,4 C 3,2 C 30,2 km/h (5 Bft)
24.04.2019 04:14 10,6 C 9,6 C 70 % 1012,9 hPa 0,0 l/m 22,4 km/h (4 Bft) S-SO 157 5,4 C 3,3 C 35,2 km/h (5 Bft)
24.04.2019 04:12 10,6 C 9,6 C 70 % 1012,9 hPa 0,0 l/m 20,8 km/h (4 Bft) S-SO 157 5,4 C 3,8 C 35,2 km/h (5 Bft)
24.04.2019 04:10 10,5 C 9,4 C 70 % 1012,9 hPa 0,0 l/m 20,0 km/h (4 Bft) SW 225 5,3 C 3,9 C 27,0 km/h (4 Bft)
24.04.2019 04:08 10,5 C 9,4 C 70 % 1012,9 hPa 0,0 l/m 18,3 km/h (3 Bft) S-SO 157 5,3 C 4,5 C 33,3 km/h (5 Bft)
24.04.2019 04:06 10,5 C 9,4 C 70 % 1012,9 hPa 0,0 l/m 17,1 km/h (3 Bft) W-SW 247 5,3 C 4,9 C 33,3 km/h (5 Bft)
24.04.2019 04:04 10,5 C 9,3 C 70 % 1012,9 hPa 0,0 l/m 17,1 km/h (3 Bft) NO 45 5,3 C 4,9 C 37,7 km/h (5 Bft)
24.04.2019 04:02 10,5 C 9,4 C 70 % 1012,9 hPa 0,0 l/m 18,3 km/h (3 Bft) S 180 5,3 C 4,5 C 37,7 km/h (5 Bft)
24.04.2019 04:00 10,5 C 9,3 C 70 % 1012,8 hPa 0,0 l/m 18,6 km/h (3 Bft) S-SW 202 5,3 C 4,4 C 23,4 km/h (4 Bft)
24.04.2019 03:58 10,5 C 9,5 C 70 % 1012,8 hPa 0,0 l/m 18,8 km/h (3 Bft) SO 135 5,3 C 4,3 C 14,7 km/h (3 Bft)
24.04.2019 03:56 10,5 C 9,4 C 70 % 1012,8 hPa 0,0 l/m 18,8 km/h (3 Bft) W-SW 247 5,3 C 4,3 C 27,3 km/h (4 Bft)
24.04.2019 03:54 10,5 C 9,5 C 70 % 1012,8 hPa 0,0 l/m 21,5 km/h (4 Bft) SO 135 5,3 C 3,5 C 35,2 km/h (5 Bft)
24.04.2019 03:52 10,5 C 9,4 C 70 % 1012,8 hPa 0,0 l/m 21,7 km/h (4 Bft) S-SW 202 5,3 C 3,4 C 35,2 km/h (5 Bft)
24.04.2019 03:50 10,4 C 9,3 C 70 % 1012,8 hPa 0,0 l/m 19,8 km/h (3 Bft) SO 135 5,2 C 3,9 C 26,6 km/h (4 Bft)
24.04.2019 03:48 10,4 C 9,3 C 70 % 1012,8 hPa 0,0 l/m 19,8 km/h (3 Bft) S-SO 157 5,2 C 3,9 C 26,1 km/h (4 Bft)
24.04.2019 03:46 10,5 C 9,5 C 70 % 1012,8 hPa 0,0 l/m 20,0 km/h (4 Bft) S-SO 157 5,3 C 3,9 C 33,8 km/h (5 Bft)
24.04.2019 03:44 10,4 C 9,3 C 70 % 1012,8 hPa 0,0 l/m 20,0 km/h (4 Bft) S-SW 202 5,2 C 3,8 C 33,8 km/h (5 Bft)
24.04.2019 03:42 10,4 C 9,1 C 70 % 1012,8 hPa 0,0 l/m 20,5 km/h (4 Bft) W 270 5,2 C 3,6 C 21,7 km/h (4 Bft)
24.04.2019 03:40 10,4 C 9,3 C 70 % 1012,6 hPa 0,0 l/m 20,8 km/h (4 Bft) SW 225 5,2 C 3,6 C 43,9 km/h (6 Bft)
24.04.2019 03:38 10,4 C 9,5 C 70 % 1012,6 hPa 0,0 l/m 20,5 km/h (4 Bft) S 180 5,2 C 3,6 C 43,9 km/h (6 Bft)
24.04.2019 03:36 10,4 C 9,4 C 70 % 1012,6 hPa 0,0 l/m 20,5 km/h (4 Bft) O-SO 112 5,2 C 3,6 C 30,2 km/h (5 Bft)
24.04.2019 03:34 10,5 C 9,5 C 70 % 1012,6 hPa 0,0 l/m 22,0 km/h (4 Bft) S-SW 202 5,3 C 3,3 C 33,6 km/h (5 Bft)
24.04.2019 03:32 10,4 C 9,4 C 70 % 1012,6 hPa 0,0 l/m 21,0 km/h (4 Bft) SW 225 5,2 C 3,5 C 33,6 km/h (5 Bft)
24.04.2019 03:30 10,4 C 9,3 C 70 % 1012,6 hPa 0,0 l/m 21,5 km/h (4 Bft) S 180 5,2 C 3,3 C 18,8 km/h (3 Bft)
24.04.2019 03:28 10,4 C 9,4 C 70 % 1012,6 hPa 0,0 l/m 23,2 km/h (4 Bft) S-SO 157 5,2 C 2,9 C 26,1 km/h (4 Bft)
24.04.2019 03:26 10,5 C 9,6 C 70 % 1012,6 hPa 0,0 l/m 24,9 km/h (4 Bft) S-SW 202 5,3 C 2,5 C 41,3 km/h (6 Bft)
24.04.2019 03:24 10,4 C 9,5 C 70 % 1012,6 hPa 0,0 l/m 23,9 km/h (4 Bft) S-SO 157 5,2 C 2,7 C 45,4 km/h (6 Bft)
24.04.2019 03:22 10,4 C 9,5 C 70 % 1012,6 hPa 0,0 l/m 23,7 km/h (4 Bft) S 180 5,2 C 2,7 C 45,4 km/h (6 Bft)
24.04.2019 03:20 10,4 C 9,5 C 70 % 1012,9 hPa 0,0 l/m 22,4 km/h (4 Bft) SW 225 5,2 C 3,1 C 48,5 km/h (6 Bft)
24.04.2019 03:18 10,4 C 9,5 C 70 % 1012,9 hPa 0,0 l/m 21,2 km/h (4 Bft) S 180 5,2 C 3,4 C 54,1 km/h (7 Bft)
24.04.2019 03:16 10,3 C 9,4 C 70 % 1012,9 hPa 0,0 l/m 19,3 km/h (3 Bft) S-SO 157 5,1 C 3,9 C 54,1 km/h (7 Bft)
24.04.2019 03:14 10,3 C 9,2 C 70 % 1012,9 hPa 0,0 l/m 18,6 km/h (3 Bft) S-SW 202 5,1 C 4,1 C 41,0 km/h (6 Bft)
24.04.2019 03:12 10,2 C 9,2 C 70 % 1012,9 hPa 0,0 l/m 17,4 km/h (3 Bft) S 180 5,0 C 4,4 C 41,0 km/h (6 Bft)
24.04.2019 03:10 10,2 C 9,3 C 70 % 1012,9 hPa 0,0 l/m 17,4 km/h (3 Bft) S-SO 157 5,0 C 4,4 C 29,0 km/h (5 Bft)
24.04.2019 03:08 10,2 C 9,1 C 70 % 1012,9 hPa 0,0 l/m 16,9 km/h (3 Bft) SO 135 5,0 C 4,6 C 38,9 km/h (6 Bft)
24.04.2019 03:06 10,1 C 8,9 C 70 % 1012,9 hPa 0,0 l/m 17,6 km/h (3 Bft) W-SW 247 4,9 C 4,2 C 38,9 km/h (6 Bft)
24.04.2019 03:04 10,1 C 9,1 C 70 % 1012,9 hPa 0,0 l/m 18,8 km/h (3 Bft) S 180 4,9 C 3,8 C 29,2 km/h (5 Bft)
24.04.2019 03:02 10,2 C 9,1 C 71 % 1012,9 hPa 0,0 l/m 18,8 km/h (3 Bft) S-SW 202 5,2 C 3,9 C 35,0 km/h (5 Bft)
24.04.2019 03:00 10,2 C 9,1 C 71 % 1012,9 hPa 0,0 l/m 19,6 km/h (3 Bft) SW 225 5,2 C 3,7 C 35,0 km/h (5 Bft)
_ Min-Zeit 03:04 03:06 13:38 04:42 - 02:20 - - 03:04 04:28 13:00
Minimum _ 10,1 C 8,9 C 47 % 1012,4 hPa - 5,8 km/h (2 Bft) - - 4,9 C 2,0 C 6,0 km/h (2 Bft)
_ Max-Zeit 13:28 13:28 03:00 02:22 03:00 07:46 - - 13:28 13:04 04:56
Maximum _ 20,4 C 21,3 C 71 % 1017,0 hPa 0,0 l/m 31,9 km/h
S-SW (5 Bft)
- - 9,3 C 19,8 C 71,9 km/h
SW (8 Bft)
Durchschnitt _ 14,7 C 14,4 C 59 % 1014,9 hPa #0,0 l/m 16,3 km/h (3 Bft) S - 6,7 C 10,6 C 26,4 km/h (4 Bft)